M I D A S
Marine Information and Data Acquisition System
Tripno 2175 of the Zeeleeuw from 2011-07-06 06:55:43 to 2011-07-06 15:21:16
Back to CruiseResearch ActivitiesStationsMapUnderway DataData graphs

EquipmentUnitsComment
TimeDGPSUTC
LatitudeDGPSDM.mWGS84
LongitudeDGPSDM.mWGS84
TemperatureSBE03/SBE38deg celciusITS90
ConductivitySBE21S/mITS90
SalinitySBE21 Practical Salinity Units
ChlorophylAChelsea fluorimeterg/lCalibrated in Aceton
Missing or incorrect values are displayed as -999
Sea surface data collected by the RV Zeeleeuw from 2011-07-06 06:51:35 to 2011-07-06 16:11:52
                                                                                    Next 1000 lines
Time Latitude Longitude Temperature Conductivity Salinity ChlorophylA
2011-07-06 06:51:44 51°13.637 2°56.02 22.6904 0.015363 0.081504 -3.020363
2011-07-06 06:51:49 51°13.636 2°56.02 22.6923 0.015363 0.081505 -3.020363
2011-07-06 06:51:54 51°13.636 2°56.02 22.6941 0.015363 0.081505 -3.020363
2011-07-06 06:51:59 51°13.636 2°56.02 22.697 0.015363 0.081505 -3.020363
2011-07-06 06:52:04 51°13.636 2°56.02 22.6923 0.015363 0.081506 -3.020363
2011-07-06 06:52:09 51°13.635 2°56.019 22.6493 0.015363 0.081506 -3.020363
2011-07-06 06:52:15 51°13.636 2°56.019 22.6139 0.015363 0.081506 -3.020363
2011-07-06 06:52:20 51°13.636 2°56.017 22.565 0.015363 0.081507 -3.020363
2011-07-06 06:52:25 51°13.637 2°56.014 22.6357 0.015363 0.081507 -3.020363
2011-07-06 06:52:30 51°13.638 2°56.011 22.659 0.015363 0.081507 -3.020363
2011-07-06 06:52:35 51°13.639 2°56.007 22.6758 0.015363 0.081509 -3.020363
2011-07-06 06:52:40 51°13.64 2°56.003 22.6717 0.015363 0.08151 -3.020363
2011-07-06 06:52:45 51°13.641 2°55.998 22.6711 0.015363 0.08151 -3.020363
2011-07-06 06:52:50 51°13.642 2°55.993 22.6516 0.015363 0.081511 -3.020363
2011-07-06 06:52:56 51°13.644 2°55.987 22.669 0.015363 0.081511 -3.020363
2011-07-06 06:53:01 51°13.645 2°55.982 22.6636 0.015363 0.081511 -3.020363
2011-07-06 06:53:06 51°13.647 2°55.975 22.6932 0.015363 0.081511 -3.020363
2011-07-06 06:53:11 51°13.648 2°55.969 22.6485 0.015363 0.081512 -3.020363
2011-07-06 06:53:16 51°13.65 2°55.962 22.6667 0.015363 0.081512 -3.020363
2011-07-06 06:53:21 51°13.652 2°55.955 22.6861 0.015363 0.081513 -3.020363
2011-07-06 06:53:26 51°13.654 2°55.947 22.687 0.015363 0.081513 -3.020363
2011-07-06 06:53:31 51°13.656 2°55.94 22.6816 0.015363 0.081514 -3.020363
2011-07-06 06:53:36 51°13.658 2°55.932 22.6867 0.015363 0.081514 -3.020363
2011-07-06 06:53:41 51°13.66 2°55.924 22.6914 0.015363 0.081514 -3.020363
2011-07-06 06:53:46 51°13.662 2°55.916 22.6919 0.015363 0.081515 -3.020363
2011-07-06 06:53:51 51°13.664 2°55.908 22.69 0.015363 0.081517 -3.020363
2011-07-06 06:53:56 51°13.666 2°55.901 22.6881 0.015363 0.081517 -3.020363
2011-07-06 06:54:01 51°13.668 2°55.893 22.6851 0.015363 0.081517 -3.020363
2011-07-06 06:54:06 51°13.67 2°55.885 22.689 0.015363 0.081517 -3.020363
2011-07-06 06:54:11 51°13.672 2°55.877 22.6867 0.015363 0.081517 -3.020363
2011-07-06 06:54:16 51°13.674 2°55.869 22.6884 0.015363 0.081518 -3.020363
2011-07-06 06:54:21 51°13.675 2°55.86 22.6952 0.015363 0.081518 -3.020363
2011-07-06 06:54:26 51°13.677 2°55.853 22.6949 0.015363 0.081518 -3.020363
2011-07-06 06:54:31 51°13.678 2°55.845 22.6913 0.015363 0.081519 -3.020363
2011-07-06 06:54:36 51°13.68 2°55.838 22.694 0.015363 0.08152 -3.020363
2011-07-06 06:54:41 51°13.681 2°55.831 22.6915 0.015363 0.08152 -3.020363
2011-07-06 06:54:46 51°13.683 2°55.824 22.6951 0.015363 0.08152 -3.020363
2011-07-06 06:54:51 51°13.684 2°55.817 22.6958 0.015363 0.081521 -3.020363
2011-07-06 06:54:56 51°13.685 2°55.81 22.6946 0.015363 0.081521 -3.020363
2011-07-06 06:55:00 51°13.685 2°55.805 22.6936 0.015363 0.081521 -3.020363
2011-07-06 06:55:06 51°13.686 2°55.798 22.693 0.015363 0.081522 -3.020363
2011-07-06 06:55:11 51°13.687 2°55.792 22.6959 0.015363 0.081522 -3.020363
2011-07-06 06:55:16 51°13.688 2°55.787 22.6972 0.015363 0.081523 -3.020363
2011-07-06 06:55:20 51°13.689 2°55.784 22.7073 0.015363 0.081523 -3.020363
2011-07-06 06:55:25 51°13.689 2°55.782 22.7314 0.015363 0.081523 -3.020363
2011-07-06 06:55:30 51°13.69 2°55.781 22.7377 0.015363 0.081523 -3.020363
2011-07-06 06:55:35 51°13.691 2°55.781 22.7407 0.015363 0.081524 -3.020363
2011-07-06 06:55:40 51°13.692 2°55.783 22.7441 0.015363 0.081526 -3.020363
2011-07-06 06:55:44 51°13.694 2°55.784 22.7421 0.015363 0.081526 -3.020363
2011-07-06 06:55:49 51°13.695 2°55.787 22.7249 0.015363 0.081527 -3.020363
2011-07-06 06:55:54 51°13.697 2°55.79 22.7098 0.015363 0.081527 -3.020363
2011-07-06 06:55:59 51°13.699 2°55.792 22.6842 0.015363 0.081527 -3.020363
2011-07-06 06:56:04 51°13.701 2°55.794 22.6414 0.015363 0.081528 -3.020363
2011-07-06 06:56:08 51°13.703 2°55.795 22.673 0.015363 0.081528 -3.020363
2011-07-06 06:56:14 51°13.704 2°55.796 22.6269 0.015363 0.081529 -3.020363
2011-07-06 06:56:19 51°13.704 2°55.795 22.608 0.015363 0.081529 -3.020363
2011-07-06 06:56:23 51°13.703 2°55.795 22.693 0.015363 0.081529 -3.020363
2011-07-06 06:56:28 51°13.703 2°55.794 22.6895 0.015363 0.08153 -3.020363
2011-07-06 06:56:33 51°13.702 2°55.793 22.6978 0.015363 0.08153 -3.020363
2011-07-06 06:56:38 51°13.701 2°55.793 22.7057 0.015363 0.081532 -3.020363
2011-07-06 06:56:43 51°13.702 2°55.793 22.7309 0.015363 0.081531 -3.020363
2011-07-06 06:56:48 51°13.703 2°55.793 22.7368 0.015363 0.081532 -3.020363
2011-07-06 06:56:52 51°13.705 2°55.794 22.7492 0.015363 0.081532 -3.020363
2011-07-06 06:56:57 51°13.709 2°55.795 22.7473 0.015363 0.081532 -3.020363
2011-07-06 06:57:02 51°13.713 2°55.795 22.7561 0.015363 0.081532 -3.020363
2011-07-06 06:57:08 51°13.72 2°55.794 22.7639 0.015363 0.081534 -3.020363
2011-07-06 06:57:12 51°13.724 2°55.792 22.7588 0.015363 0.081535 -3.020363
2011-07-06 06:57:17 51°13.729 2°55.788 22.759 0.015363 0.081535 -3.020363
2011-07-06 06:57:22 51°13.735 2°55.782 22.6971 0.015363 0.081535 -3.020363
2011-07-06 06:57:28 51°13.741 2°55.772 22.6542 0.015363 0.081534 -3.020363
2011-07-06 06:57:32 51°13.745 2°55.766 22.6638 0.015363 0.081532 -3.020363
2011-07-06 06:57:38 51°13.75 2°55.757 22.662 0.015363 0.081532 -3.020363
2011-07-06 06:57:42 51°13.754 2°55.75 22.6662 0.015363 0.08153 -3.020363
2011-07-06 06:57:48 51°13.759 2°55.741 22.6571 0.015363 0.08153 -3.020363
2011-07-06 06:57:52 51°13.762 2°55.734 22.6577 0.015363 0.08153 -3.020363
2011-07-06 06:57:57 51°13.767 2°55.726 22.6442 0.015363 0.08153 -3.020363
2011-07-06 06:58:02 51°13.772 2°55.718 22.6463 0.015363 0.08153 -3.020363
2011-07-06 06:58:07 51°13.776 2°55.71 22.6357 0.015363 0.081529 -3.020363
2011-07-06 06:58:12 51°13.781 2°55.702 22.6329 0.015363 0.081529 -3.020363
2011-07-06 06:58:17 51°13.786 2°55.695 22.6313 0.015363 0.08153 -3.020363
2011-07-06 06:58:23 51°13.791 2°55.687 22.6343 0.015363 0.08153 -3.020363
2011-07-06 06:58:28 51°13.796 2°55.68 22.6419 0.015363 0.08153 -3.020363
2011-07-06 06:58:32 51°13.8 2°55.675 22.6479 0.015363 0.08153 -3.020363
2011-07-06 06:58:37 51°13.805 2°55.669 22.6608 0.015363 0.08153 -3.020363
2011-07-06 06:58:42 51°13.809 2°55.664 22.6607 0.015363 0.081531 -3.020363
2011-07-06 06:58:48 51°13.815 2°55.657 22.6649 0.015363 0.081531 -3.020363
2011-07-06 06:58:52 51°13.82 2°55.652 22.6743 0.015363 0.081531 -3.020363
2011-07-06 06:58:57 51°13.824 2°55.647 22.6725 0.015363 0.081531 -3.020363
2011-07-06 06:59:02 51°13.83 2°55.641 22.6795 0.015363 0.081531 -3.020363
2011-07-06 06:59:08 51°13.836 2°55.634 22.6805 0.015363 0.081532 -3.020363
2011-07-06 06:59:12 51°13.84 2°55.63 22.6891 0.015363 0.081532 -3.020363
2011-07-06 06:59:18 51°13.848 2°55.623 22.6886 0.015363 0.081534 -3.020363
2011-07-06 06:59:22 51°13.852 2°55.619 22.6924 0.015363 0.081534 -3.020363
2011-07-06 06:59:28 51°13.859 2°55.612 22.6854 0.015363 0.081534 -3.020363
2011-07-06 06:59:32 51°13.864 2°55.608 22.6791 0.015363 0.081535 -3.020363
2011-07-06 06:59:37 51°13.87 2°55.602 22.6844 0.015363 0.081535 -3.020363
2011-07-06 06:59:42 51°13.876 2°55.596 22.6961 0.015363 0.081536 -3.020363
2011-07-06 06:59:48 51°13.884 2°55.589 22.6985 0.015363 0.081535 -3.020363
2011-07-06 06:59:52 51°13.889 2°55.584 22.6967 0.015363 0.081535 -3.020363
2011-07-06 06:59:57 51°13.895 2°55.578 22.6975 0.015363 0.081536 -3.020363
2011-07-06 07:00:02 51°13.901 2°55.572 22.698 0.015363 0.081536 -3.020363
2011-07-06 07:00:08 51°13.909 2°55.566 22.6915 0.015363 0.081537 -3.020363
2011-07-06 07:00:12 51°13.915 2°55.562 22.6937 0.015363 0.081537 -3.020363
2011-07-06 07:00:17 51°13.921 2°55.556 22.6964 0.015363 0.081538 -3.020363
2011-07-06 07:00:22 51°13.927 2°55.55 22.7015 0.015363 0.081538 -3.020363
2011-07-06 07:00:28 51°13.935 2°55.542 22.7017 0.015363 0.081538 -3.020363
2011-07-06 07:00:32 51°13.941 2°55.537 22.7013 0.015363 0.081539 -3.020363
2011-07-06 07:00:37 51°13.947 2°55.531 22.7015 0.015363 0.08154 -3.020363
2011-07-06 07:00:42 51°13.954 2°55.524 22.6995 0.015363 0.081539 -3.020363
2011-07-06 07:00:47 51°13.961 2°55.518 22.6929 0.015363 0.08154 -3.020363
2011-07-06 07:00:52 51°13.968 2°55.512 22.6966 0.015363 0.08154 -3.020363
2011-07-06 07:00:57 51°13.975 2°55.506 22.695 0.015363 0.08154 -3.020363
2011-07-06 07:01:03 51°13.984 2°55.499 22.6927 0.015363 0.081542 -3.020363
2011-07-06 07:01:08 51°13.992 2°55.493 22.6908 0.015363 0.081542 -3.020363
2011-07-06 07:01:12 51°13.998 2°55.489 22.6884 0.015363 0.081543 -3.020363
2011-07-06 07:01:18 51°14.007 2°55.483 22.6895 0.015363 0.081543 -3.020363
2011-07-06 07:01:23 51°14.015 2°55.478 22.6904 0.015363 0.081543 -3.020363
2011-07-06 07:01:28 51°14.024 2°55.472 22.6951 0.015363 0.081543 -3.020363
2011-07-06 07:01:32 51°14.03 2°55.468 22.6982 0.015363 0.081544 -3.020363
2011-07-06 07:01:38 51°14.04 2°55.461 22.7029 0.015363 0.081544 -3.020363
2011-07-06 07:01:43 51°14.048 2°55.455 22.6996 0.015363 0.081544 -3.020363
2011-07-06 07:01:48 51°14.056 2°55.45 22.7036 0.015363 0.081546 -3.020363
2011-07-06 07:01:52 51°14.063 2°55.446 22.7059 0.015363 0.081546 -3.020363
2011-07-06 07:01:57 51°14.072 2°55.44 22.708 0.015363 0.081546 -3.020363
2011-07-06 07:02:03 51°14.082 2°55.433 22.7111 0.015363 0.081546 -3.020363
2011-07-06 07:02:08 51°14.091 2°55.427 22.7091 0.015363 0.081547 -3.020363
2011-07-06 07:02:12 51°14.098 2°55.423 22.714 0.015363 0.081547 -3.020363
2011-07-06 07:02:17 51°14.107 2°55.417 22.7155 0.015363 0.081548 -3.020363
2011-07-06 07:02:22 51°14.116 2°55.41 22.713 0.015363 0.081548 -3.020363
2011-07-06 07:02:28 51°14.127 2°55.402 22.7145 0.015363 0.081548 -3.020363
2011-07-06 07:02:32 51°14.135 2°55.397 22.7074 0.015363 0.081548 -3.020363
2011-07-06 07:02:37 51°14.144 2°55.389 22.7026 0.015363 0.08155 -3.020363
2011-07-06 07:02:42 51°14.154 2°55.383 22.709 0.015363 0.08155 -3.020363
2011-07-06 07:02:48 51°14.166 2°55.374 22.7114 0.015363 0.081551 -3.020363
2011-07-06 07:02:52 51°14.174 2°55.369 22.7125 0.015363 0.081551 -3.020363
2011-07-06 07:02:57 51°14.184 2°55.361 22.7101 0.015363 0.081552 -3.020363
2011-07-06 07:03:02 51°14.194 2°55.353 22.711 0.015363 0.081551 -3.020363
2011-07-06 07:03:07 51°14.204 2°55.345 22.71 0.015363 0.081552 -3.020363
2011-07-06 07:03:12 51°14.214 2°55.337 22.6979 0.015363 0.081553 -3.020363
2011-07-06 07:03:17 51°14.224 2°55.328 22.6879 0.015363 0.081553 -3.020363
2011-07-06 07:03:23 51°14.237 2°55.318 22.7011 0.015363 0.081553 -3.020363
2011-07-06 07:03:28 51°14.247 2°55.31 22.7057 0.015363 0.081554 -3.020363
2011-07-06 07:03:32 51°14.255 2°55.303 22.7282 0.015363 0.081554 -3.020363
2011-07-06 07:03:38 51°14.268 2°55.293 22.713 0.015363 0.081555 -3.020363
2011-07-06 07:03:43 51°14.278 2°55.284 22.7051 0.015363 0.081555 -3.020363
2011-07-06 07:03:48 51°14.289 2°55.274 22.7047 0.015363 0.081556 -3.020363
2011-07-06 07:03:53 51°14.3 2°55.265 22.7178 0.015363 0.081556 -3.020363
2011-07-06 07:03:58 51°14.31 2°55.255 22.7142 0.015363 0.081557 -3.020363
2011-07-06 07:04:03 51°14.321 2°55.244 22.726 0.015363 0.081556 -3.020363
2011-07-06 07:04:08 51°14.332 2°55.234 22.715 0.015363 0.081557 -3.020363
2011-07-06 07:04:12 51°14.341 2°55.226 22.697 0.015363 0.081559 -3.020363
2011-07-06 07:04:18 51°14.355 2°55.212 22.6698 0.015363 0.081559 -3.020363
2011-07-06 07:04:23 51°14.366 2°55.202 22.7119 0.015363 0.081559 -3.020363
2011-07-06 07:04:28 51°14.377 2°55.192 22.726 0.015363 0.081559 -3.020363
2011-07-06 07:04:32 51°14.387 2°55.183 22.7184 0.015363 0.08156 -3.020363
2011-07-06 07:04:38 51°14.401 2°55.17 22.6769 0.015363 0.08156 -3.020363
2011-07-06 07:04:43 51°14.413 2°55.158 22.6601 0.015363 0.08156 -3.020363
2011-07-06 07:04:48 51°14.426 2°55.146 22.7173 0.015363 0.08156 -3.020363
2011-07-06 07:04:53 51°14.438 2°55.135 22.7019 0.015363 0.08156 -3.020363
2011-07-06 07:04:58 51°14.451 2°55.122 22.6623 0.015363 0.081561 -3.020363
2011-07-06 07:05:02 51°14.461 2°55.112 22.6878 0.015363 0.081562 -3.020363
2011-07-06 07:05:08 51°14.478 2°55.096 22.7151 0.015363 0.081562 -3.020363
2011-07-06 07:05:13 51°14.492 2°55.083 22.7212 0.015363 0.081563 -3.020363
2011-07-06 07:05:18 51°14.506 2°55.068 22.6648 0.015363 0.081562 -3.020363
2011-07-06 07:05:23 51°14.52 2°55.053 22.6836 0.015363 0.081562 -3.020363
2011-07-06 07:05:28 51°14.535 2°55.038 22.6784 0.015363 0.081564 -3.020363
2011-07-06 07:05:33 51°14.549 2°55.022 22.6045 0.015363 0.081564 -3.020363
2011-07-06 07:05:38 51°14.564 2°55.005 22.6926 0.015363 0.081564 -3.020363
2011-07-06 07:05:43 51°14.578 2°54.989 22.6813 0.015363 0.081565 -3.020363
2011-07-06 07:05:48 51°14.593 2°54.972 22.6208 0.015363 0.081565 -3.020363
2011-07-06 07:05:53 51°14.607 2°54.954 22.6559 0.015363 0.081565 -3.020363
2011-07-06 07:05:58 51°14.622 2°54.936 22.62 0.015363 0.081567 -3.020363
2011-07-06 07:06:03 51°14.637 2°54.92 22.6636 0.015363 0.081567 -3.020363
2011-07-06 07:06:08 51°14.651 2°54.903 22.68 0.015363 0.081568 -3.020363
2011-07-06 07:06:13 51°14.666 2°54.887 22.66 0.015363 0.081569 -3.020363
2011-07-06 07:06:17 51°14.678 2°54.873 22.6758 0.015363 0.081569 -3.020363
2011-07-06 07:06:23 51°14.696 2°54.853 22.6318 0.015363 0.081569 -3.020363
2011-07-06 07:06:28 51°14.711 2°54.836 22.6534 0.015363 0.08157 -3.020363
2011-07-06 07:06:33 51°14.725 2°54.819 22.6685 0.015363 0.081571 -3.020363
2011-07-06 07:06:37 51°14.737 2°54.804 22.6335 0.015363 0.081572 -3.020363
2011-07-06 07:06:43 51°14.754 2°54.783 22.6512 0.015363 0.081572 -3.020363
2011-07-06 07:06:48 51°14.769 2°54.765 22.6489 0.015363 0.081573 -3.020363
2011-07-06 07:06:53 51°14.783 2°54.747 22.6291 0.015363 0.081573 -3.020363
2011-07-06 07:06:57 51°14.795 2°54.733 22.6239 0.015363 0.081573 -3.020363
2011-07-06 07:07:03 51°14.812 2°54.711 22.6599 0.015363 0.081575 -3.020363
2011-07-06 07:07:08 51°14.827 2°54.693 22.6461 0.015363 0.081576 -3.020363
2011-07-06 07:07:13 51°14.841 2°54.675 22.6585 0.015363 0.081578 -3.020363
2011-07-06 07:07:18 51°14.856 2°54.658 22.6434 0.015363 0.081579 -3.020363
2011-07-06 07:07:23 51°14.87 2°54.64 22.617 0.015363 0.081579 -3.020363
2011-07-06 07:07:28 51°14.885 2°54.622 22.6394 0.015363 0.081579 -3.020363
2011-07-06 07:07:33 51°14.899 2°54.605 22.6299 0.015363 0.08158 -3.020363
2011-07-06 07:07:38 51°14.914 2°54.587 22.6438 0.015363 0.081581 -3.020363
2011-07-06 07:07:42 51°14.926 2°54.574 22.6452 0.015363 0.081583 -3.020363
2011-07-06 07:07:48 51°14.944 2°54.554 22.6012 0.015363 0.081584 -3.020363
2011-07-06 07:07:53 51°14.959 2°54.539 22.6552 0.015363 0.081584 -3.020363
2011-07-06 07:07:58 51°14.975 2°54.524 22.6111 0.015363 0.081585 -3.020363
2011-07-06 07:08:03 51°14.99 2°54.509 22.619 0.015363 0.081586 -3.020363
2011-07-06 07:08:08 51°15.005 2°54.494 22.6646 0.015363 0.081588 -3.020363
2011-07-06 07:08:13 51°15.021 2°54.479 22.5844 0.015363 0.081589 -3.020363
2011-07-06 07:08:18 51°15.036 2°54.463 22.6197 0.015363 0.081591 -3.020363
2011-07-06 07:08:23 51°15.051 2°54.448 22.6084 0.015363 0.081591 -3.020363
2011-07-06 07:08:28 51°15.066 2°54.432 22.6324 0.015363 0.081592 -3.020363
2011-07-06 07:08:33 51°15.081 2°54.417 22.6306 0.015363 0.081594 -3.020363
2011-07-06 07:08:37 51°15.093 2°54.404 22.6086 0.015363 0.081595 -3.020363
2011-07-06 07:08:43 51°15.11 2°54.384 22.6418 0.015363 0.081596 -3.020363
2011-07-06 07:08:48 51°15.124 2°54.367 22.6088 0.015363 0.081598 -3.020363
2011-07-06 07:08:53 51°15.138 2°54.349 22.6176 0.015363 0.081598 -3.020363
2011-07-06 07:08:57 51°15.15 2°54.335 22.6329 0.015363 0.0816 -3.020363
2011-07-06 07:09:03 51°15.166 2°54.314 22.6222 0.015363 0.081601 -3.020363
2011-07-06 07:09:08 51°15.18 2°54.296 22.6114 0.015363 0.081602 -3.020363
2011-07-06 07:09:13 51°15.194 2°54.278 22.6354 0.015363 0.081604 -3.020363
2011-07-06 07:09:18 51°15.208 2°54.26 22.6447 0.015363 0.081605 -3.020363
2011-07-06 07:09:23 51°15.222 2°54.242 22.5843 0.015363 0.081605 -3.020363
2011-07-06 07:09:28 51°15.235 2°54.222 22.5811 0.015363 0.081606 -3.020363
2011-07-06 07:09:33 51°15.248 2°54.204 22.6122 0.015363 0.081608 -3.020363
2011-07-06 07:09:38 51°15.262 2°54.185 22.5996 0.015363 0.08161 -3.020363
2011-07-06 07:09:43 51°15.276 2°54.167 22.5849 0.015363 0.081611 -3.020363
2011-07-06 07:09:48 51°15.29 2°54.149 22.5999 0.015363 0.081613 -3.020363
2011-07-06 07:09:53 51°15.304 2°54.131 22.606 0.015363 0.081613 -3.020363
2011-07-06 07:09:58 51°15.317 2°54.113 22.5834 0.015363 0.081614 -3.020363
2011-07-06 07:10:02 51°15.329 2°54.099 22.6135 0.015363 0.081616 -3.020363
2011-07-06 07:10:08 51°15.345 2°54.078 22.5974 0.015363 0.081618 -3.020363
2011-07-06 07:10:13 51°15.36 2°54.06 22.6183 0.015363 0.081618 -3.020363
2011-07-06 07:10:18 51°15.374 2°54.042 22.5899 0.015363 0.08162 -3.020363
2011-07-06 07:10:23 51°15.388 2°54.024 22.605 0.015363 0.08162 -3.020363
2011-07-06 07:10:28 51°15.402 2°54.007 22.61 0.015363 0.081621 -3.020363
2011-07-06 07:10:33 51°15.416 2°53.989 22.6127 0.015363 0.081624 -3.020363
2011-07-06 07:10:37 51°15.428 2°53.976 22.5847 0.015363 0.081625 -3.020363
2011-07-06 07:10:43 51°15.445 2°53.955 22.5856 0.015363 0.081626 -3.020363
2011-07-06 07:10:48 51°15.46 2°53.939 22.5938 0.015363 0.081628 -3.020363
2011-07-06 07:10:53 51°15.474 2°53.922 22.5908 0.015363 0.081628 -3.020363
2011-07-06 07:10:57 51°15.486 2°53.909 22.613 0.015363 0.08163 -3.020363
2011-07-06 07:11:03 51°15.503 2°53.889 22.6111 0.015363 0.081632 -3.020363
2011-07-06 07:11:08 51°15.518 2°53.873 22.6172 0.015363 0.081633 -3.020363
2011-07-06 07:11:13 51°15.532 2°53.857 22.6219 0.015363 0.081635 -3.020363
2011-07-06 07:11:17 51°15.543 2°53.844 22.6277 0.015363 0.081637 -3.020363
2011-07-06 07:11:23 51°15.561 2°53.824 22.597 0.015363 0.081637 -3.020363
2011-07-06 07:11:28 51°15.575 2°53.807 22.6179 0.015363 0.081638 -3.020363
2011-07-06 07:11:33 51°15.589 2°53.789 22.5938 0.015363 0.08164 -3.020363
2011-07-06 07:11:37 51°15.6 2°53.775 22.595 0.015363 0.081642 -3.020363
2011-07-06 07:11:43 51°15.617 2°53.755 22.6031 0.015363 0.081644 -3.020363
2011-07-06 07:11:48 51°15.63 2°53.738 22.5924 0.01526 0.081127 -3.020363
2011-07-06 07:11:53 51°15.644 2°53.72 22.611 0.01526 0.081127 -3.020363
2011-07-06 07:11:57 51°15.655 2°53.706 22.6151 0.01526 0.081129 -3.020363
2011-07-06 07:12:03 51°15.672 2°53.685 22.6173 0.015363 0.081651 -3.020363
2011-07-06 07:12:08 51°15.686 2°53.668 22.6126 0.01526 0.081132 -3.020363
2011-07-06 07:12:13 51°15.7 2°53.651 22.6192 0.01526 0.081134 -3.020363
2011-07-06 07:12:18 51°15.714 2°53.634 22.618 0.01526 0.081137 -3.020363
2011-07-06 07:12:23 51°15.728 2°53.618 22.6003 0.01526 0.081137 -3.020363
2011-07-06 07:12:28 51°15.742 2°53.601 22.5948 0.01526 0.081138 -3.020363
2011-07-06 07:12:33 51°15.756 2°53.584 22.6243 0.01526 0.08114 -3.020363
2011-07-06 07:12:38 51°15.77 2°53.567 22.6065 0.01526 0.081142 -3.020363
2011-07-06 07:12:43 51°15.784 2°53.55 22.615 0.01526 0.081144 -3.020363
2011-07-06 07:12:48 51°15.798 2°53.532 22.619 0.01526 0.081146 -3.020363
2011-07-06 07:12:53 51°15.812 2°53.515 22.5963 0.01526 0.081146 -3.020363
2011-07-06 07:12:57 51°15.823 2°53.501 22.6118 0.01526 0.081148 -3.020363
2011-07-06 07:13:03 51°15.84 2°53.48 22.6021 0.01526 0.08115 -3.020363
2011-07-06 07:13:08 51°15.854 2°53.462 22.6171 0.01526 0.081151 -3.020363
2011-07-06 07:13:13 51°15.868 2°53.445 22.6132 0.01526 0.081154 -3.020363
2011-07-06 07:13:17 51°15.879 2°53.431 22.5921 0.01526 0.081155 -3.020363
2011-07-06 07:13:23 51°15.897 2°53.411 22.6149 0.01526 0.081155 -3.020363
2011-07-06 07:13:28 51°15.911 2°53.394 22.5988 0.01526 0.081157 -3.020363
2011-07-06 07:13:33 51°15.925 2°53.377 22.6075 0.01526 0.081158 -3.020363
2011-07-06 07:13:37 51°15.937 2°53.364 22.6122 0.01526 0.081161 -3.020363
2011-07-06 07:13:43 51°15.954 2°53.343 22.6153 0.01526 0.081163 -3.020363
2011-07-06 07:13:48 51°15.968 2°53.325 22.6142 0.01526 0.081165 -3.020363
2011-07-06 07:13:53 51°15.982 2°53.308 22.6077 0.01526 0.081165 -3.020363
2011-07-06 07:13:58 51°15.996 2°53.29 22.6129 0.01526 0.081167 -3.020363
2011-07-06 07:14:03 51°16.01 2°53.273 22.6128 0.01526 0.081167 -3.020363
2011-07-06 07:14:08 51°16.024 2°53.256 22.6068 0.01526 0.08117 -3.020363
2011-07-06 07:14:13 51°16.039 2°53.239 22.611 0.01526 0.081171 -3.020363
2011-07-06 07:14:18 51°16.053 2°53.222 22.5823 0.01526 0.081173 -3.020363
2011-07-06 07:14:22 51°16.065 2°53.209 22.5956 0.01526 0.081173 -3.020363
2011-07-06 07:14:28 51°16.082 2°53.189 22.5955 0.01526 0.081175 -3.020363
2011-07-06 07:14:33 51°16.097 2°53.174 22.582 0.01526 0.081176 -3.020363
2011-07-06 07:14:38 51°16.113 2°53.16 22.599 0.01526 0.081178 -3.020363
2011-07-06 07:14:43 51°16.129 2°53.147 22.6042 0.01526 0.08118 -3.020363
2011-07-06 07:14:48 51°16.145 2°53.136 22.6133 0.01526 0.081182 -3.020363
2011-07-06 07:14:53 51°16.162 2°53.125 22.5994 0.01526 0.081182 -3.020363
2011-07-06 07:14:57 51°16.175 2°53.116 22.6089 0.01526 0.081183 -3.020363
2011-07-06 07:15:03 51°16.196 2°53.105 22.5908 0.01526 0.081185 -3.020363
2011-07-06 07:15:08 51°16.213 2°53.096 22.616 0.01526 0.081187 -3.020363
2011-07-06 07:15:13 51°16.23 2°53.088 22.6086 0.01526 0.081189 -3.020363
2011-07-06 07:15:17 51°16.244 2°53.082 22.6226 0.01526 0.081195 -3.020363
2011-07-06 07:15:23 51°16.265 2°53.073 22.6035 0.01526 0.081195 -3.020363
2011-07-06 07:15:28 51°16.282 2°53.064 22.6027 0.01526 0.081202 -3.020363
2011-07-06 07:15:33 51°16.299 2°53.056 22.6204 0.01526 0.081208 -3.020363
2011-07-06 07:15:37 51°16.313 2°53.05 22.6151 0.01526 0.081208 -3.020363
2011-07-06 07:15:43 51°16.334 2°53.041 22.6207 0.01526 0.081209 -3.020363
2011-07-06 07:15:48 51°16.351 2°53.032 22.6122 0.01526 0.081209 -3.020363
2011-07-06 07:15:53 51°16.368 2°53.024 22.6061 0.01526 0.081209 -3.020363
2011-07-06 07:15:58 51°16.385 2°53.016 22.6108 0.01526 0.081209 -3.020363
2011-07-06 07:16:02 51°16.399 2°53.009 22.6138 0.01526 0.08121 -3.020363
2011-07-06 07:16:08 51°16.42 2°53 22.6237 0.01526 0.081213 -3.020363
2011-07-06 07:16:13 51°16.437 2°52.991 22.6286 0.01526 0.081213 -3.020363
2011-07-06 07:16:18 51°16.454 2°52.983 22.6194 0.01526 0.081214 -3.020363
2011-07-06 07:16:23 51°16.471 2°52.975 22.6209 0.01526 0.081214 -3.020363
2011-07-06 07:16:28 51°16.488 2°52.967 22.6324 0.01526 0.081216 -3.020363
2011-07-06 07:16:33 51°16.505 2°52.959 22.6306 0.01526 0.081218 -3.020363
2011-07-06 07:16:37 51°16.519 2°52.952 22.6313 0.01526 0.08122 -3.020363
2011-07-06 07:16:43 51°16.539 2°52.942 22.6203 0.01526 0.081222 -3.020363
2011-07-06 07:16:48 51°16.556 2°52.933 22.6295 0.01526 0.081223 -3.020363
2011-07-06 07:16:53 51°16.573 2°52.925 22.6188 0.01526 0.081223 -3.020363
2011-07-06 07:16:58 51°16.59 2°52.916 22.6293 0.01526 0.081225 -3.020363
2011-07-06 07:17:03 51°16.607 2°52.908 22.6257 0.01526 0.081226 -3.020363
2011-07-06 07:17:08 51°16.624 2°52.9 22.6335 0.01526 0.081229 -3.020363
2011-07-06 07:17:13 51°16.641 2°52.892 22.6296 0.01526 0.08123 -3.020363
2011-07-06 07:17:17 51°16.655 2°52.885 22.6357 0.01526 0.081232 -3.020363
2011-07-06 07:17:23 51°16.675 2°52.875 22.6342 0.01526 0.081232 -3.020363
2011-07-06 07:17:28 51°16.692 2°52.866 22.6393 0.01526 0.081233 -3.020363
2011-07-06 07:17:33 51°16.709 2°52.858 22.6364 0.01526 0.081235 -3.020363
2011-07-06 07:17:37 51°16.723 2°52.851 22.6212 0.01526 0.081238 -3.020363
2011-07-06 07:17:43 51°16.743 2°52.84 22.6434 0.01526 0.08124 -3.020363
2011-07-06 07:17:48 51°16.76 2°52.832 22.6359 0.01526 0.081241 -3.020363
2011-07-06 07:17:53 51°16.777 2°52.822 22.638 0.01526 0.081241 -3.020363
2011-07-06 07:17:57 51°16.791 2°52.815 22.6396 0.01526 0.081243 -3.020363
2011-07-06 07:18:03 51°16.811 2°52.804 22.6262 0.01526 0.081245 -3.020363
2011-07-06 07:18:08 51°16.828 2°52.794 22.628 0.01526 0.081247 -3.020363
2011-07-06 07:18:13 51°16.844 2°52.784 22.6429 0.01526 0.081249 -3.020363
2011-07-06 07:18:18 51°16.861 2°52.774 22.6224 0.01526 0.081251 -3.020363
2011-07-06 07:18:23 51°16.878 2°52.764 22.6362 0.01526 0.081251 -3.020363
2011-07-06 07:18:28 51°16.894 2°52.754 22.6401 0.01526 0.081253 -3.020363
2011-07-06 07:18:33 51°16.911 2°52.743 22.6281 0.01526 0.081255 -3.020363
2011-07-06 07:18:38 51°16.927 2°52.733 22.6246 0.01526 0.081256 -3.020363
2011-07-06 07:18:42 51°16.941 2°52.725 22.6382 0.01526 0.081258 -3.020363
2011-07-06 07:18:48 51°16.961 2°52.713 22.6485 0.01526 0.081259 -3.020363
2011-07-06 07:18:53 51°16.978 2°52.704 22.6267 0.01526 0.081259 -3.020363
2011-07-06 07:18:58 51°16.995 2°52.693 22.6464 0.01526 0.081262 -3.020363
2011-07-06 07:19:03 51°17.012 2°52.684 22.6327 0.01526 0.081263 -3.020363
2011-07-06 07:19:08 51°17.029 2°52.674 22.6423 0.01526 0.081265 -3.020363
2011-07-06 07:19:13 51°17.046 2°52.664 22.6389 0.01526 0.081267 -3.020363
2011-07-06 07:19:17 51°17.059 2°52.656 22.6308 0.01526 0.081268 -3.020363
2011-07-06 07:19:23 51°17.08 2°52.644 22.6417 0.01526 0.081268 -3.020363
2011-07-06 07:19:28 51°17.097 2°52.634 22.6436 0.01526 0.081271 -3.020363
2011-07-06 07:19:33 51°17.113 2°52.623 22.6439 0.01526 0.081272 -3.020363
2011-07-06 07:19:37 51°17.127 2°52.616 22.6385 0.01526 0.081274 -3.020363
2011-07-06 07:19:43 51°17.147 2°52.604 22.6454 0.01526 0.081276 -3.020363
2011-07-06 07:19:48 51°17.164 2°52.594 22.6497 0.01526 0.081278 -3.020363
2011-07-06 07:19:53 51°17.181 2°52.585 22.6379 0.01526 0.081278 -3.020363
2011-07-06 07:19:57 51°17.194 2°52.577 22.6552 0.01526 0.08128 -3.020363
2011-07-06 07:20:03 51°17.215 2°52.565 22.6365 0.01526 0.081281 -3.020363
2011-07-06 07:20:08 51°17.232 2°52.557 22.6427 0.01526 0.081283 -3.020363
2011-07-06 07:20:13 51°17.249 2°52.547 22.6574 0.01526 0.081284 -3.020363
2011-07-06 07:20:17 51°17.262 2°52.541 22.6443 0.01526 0.08129 -3.020363
2011-07-06 07:20:23 51°17.283 2°52.53 22.6595 0.01526 0.08129 -3.020363
2011-07-06 07:20:28 51°17.3 2°52.521 22.6555 0.01526 0.081287 -3.020363
2011-07-06 07:20:33 51°17.317 2°52.512 22.6589 0.01526 0.081283 -3.020363
2011-07-06 07:20:38 51°17.334 2°52.502 22.6581 0.01526 0.081284 -3.020363
2011-07-06 07:20:43 51°17.351 2°52.493 22.6518 0.01526 0.081287 -3.020363
2011-07-06 07:20:48 51°17.368 2°52.483 22.6531 0.01526 0.08129 -3.020363
2011-07-06 07:20:53 51°17.385 2°52.473 22.6572 0.01526 0.08129 -3.020363
2011-07-06 07:20:58 51°17.401 2°52.463 22.6489 0.01526 0.081294 -3.020363
2011-07-06 07:21:03 51°17.418 2°52.454 22.6622 0.01526 0.081296 -3.020363
2011-07-06 07:21:08 51°17.435 2°52.444 22.6411 0.01526 0.081297 -3.020363
2011-07-06 07:21:13 51°17.452 2°52.435 22.6599 0.01526 0.081299 -3.020363
2011-07-06 07:21:18 51°17.469 2°52.428 22.6528 0.01526 0.0813 -3.020363
2011-07-06 07:21:23 51°17.487 2°52.42 22.658 0.01526 0.0813 -3.020363
2011-07-06 07:21:28 51°17.504 2°52.414 22.6576 0.01526 0.081304 -3.020363
2011-07-06 07:21:33 51°17.522 2°52.409 22.661 0.01526 0.081306 -3.020363
2011-07-06 07:21:38 51°17.539 2°52.403 22.6603 0.01526 0.081307 -3.020363
2011-07-06 07:21:43 51°17.557 2°52.397 22.6547 0.01526 0.081308 -3.020363
2011-07-06 07:21:48 51°17.574 2°52.391 22.6588 0.01526 0.081309 -3.020363
2011-07-06 07:21:53 51°17.592 2°52.386 22.6638 0.01526 0.081309 -3.020363
2011-07-06 07:21:57 51°17.607 2°52.383 22.6648 0.01526 0.081312 -3.020363
2011-07-06 07:22:03 51°17.628 2°52.378 22.6569 0.01526 0.081314 -3.020363
2011-07-06 07:22:08 51°17.645 2°52.373 22.6693 0.01526 0.081315 -3.020363
2011-07-06 07:22:13 51°17.663 2°52.37 22.6586 0.01526 0.081317 -3.020363
2011-07-06 07:22:17 51°17.678 2°52.367 22.6682 0.01526 0.08132 -3.020363
2011-07-06 07:22:23 51°17.699 2°52.362 22.6652 0.01526 0.08132 -3.020363
2011-07-06 07:22:28 51°17.717 2°52.358 22.68 0.01526 0.081324 -3.020363
2011-07-06 07:22:33 51°17.735 2°52.354 22.6621 0.01526 0.08133 -3.020363
2011-07-06 07:22:38 51°17.753 2°52.35 22.6756 0.01526 0.08133 -3.020363
2011-07-06 07:22:42 51°17.767 2°52.347 22.673 0.01526 0.081331 -3.020363
2011-07-06 07:22:48 51°17.788 2°52.344 22.6673 0.01526 0.081331 -3.020363
2011-07-06 07:22:53 51°17.806 2°52.341 22.6667 0.01526 0.081331 -3.020363
2011-07-06 07:22:58 51°17.823 2°52.337 22.6687 0.01526 0.081332 -3.020363
2011-07-06 07:23:03 51°17.841 2°52.336 22.6779 0.01526 0.081333 -3.020363
2011-07-06 07:23:08 51°17.859 2°52.333 22.6787 0.01526 0.081336 -3.020363
2011-07-06 07:23:13 51°17.877 2°52.332 22.6588 0.01526 0.081337 -3.020363
2011-07-06 07:23:17 51°17.891 2°52.329 22.6805 0.01526 0.08134 -3.020363
2011-07-06 07:23:23 51°17.912 2°52.327 22.655 0.01526 0.08134 -3.020363
2011-07-06 07:23:28 51°17.93 2°52.325 22.6765 0.01526 0.081345 -3.020363
2011-07-06 07:23:33 51°17.948 2°52.323 22.6847 0.01526 0.081343 -3.020363
2011-07-06 07:23:38 51°17.966 2°52.322 22.676 0.01526 0.081331 -3.020363
2011-07-06 07:23:43 51°17.984 2°52.318 22.6672 0.01526 0.081331 -3.020363
2011-07-06 07:23:48 51°18.001 2°52.317 22.6799 0.01526 0.081335 -3.020363
2011-07-06 07:23:53 51°18.019 2°52.315 22.6902 0.01526 0.081335 -3.020363
2011-07-06 07:23:57 51°18.034 2°52.314 22.678 0.01526 0.081339 -3.020363
2011-07-06 07:24:03 51°18.055 2°52.312 22.6713 0.01526 0.081344 -3.020363
2011-07-06 07:24:08 51°18.073 2°52.312 22.6867 0.01526 0.081351 -3.020363
2011-07-06 07:24:13 51°18.091 2°52.311 22.6675 0.01526 0.081354 -3.020363
2011-07-06 07:24:17 51°18.105 2°52.311 22.6837 0.01526 0.081356 -3.020363
2011-07-06 07:24:23 51°18.126 2°52.312 22.6752 0.01526 0.081356 -3.020363
2011-07-06 07:24:28 51°18.144 2°52.312 22.6815 0.01526 0.081357 -3.020363
2011-07-06 07:24:33 51°18.162 2°52.314 22.6811 0.01526 0.081356 -3.020363
2011-07-06 07:24:37 51°18.176 2°52.314 22.6888 0.01526 0.081357 -3.020363
2011-07-06 07:24:43 51°18.197 2°52.315 22.6876 0.01526 0.081357 -3.020363
2011-07-06 07:24:48 51°18.215 2°52.316 22.6911 0.01526 0.081359 -3.020363
2011-07-06 07:24:53 51°18.233 2°52.317 22.6947 0.01526 0.081359 -3.020363
2011-07-06 07:24:57 51°18.247 2°52.317 22.68 0.01526 0.081359 -3.020363
2011-07-06 07:25:03 51°18.269 2°52.316 22.6929 0.01526 0.081359 -3.020363
2011-07-06 07:25:08 51°18.287 2°52.317 22.6795 0.01526 0.081361 -3.020363
2011-07-06 07:25:13 51°18.305 2°52.315 22.6961 0.01526 0.08136 -3.020363
2011-07-06 07:25:18 51°18.322 2°52.315 22.6834 0.01526 0.081354 -3.020363
2011-07-06 07:25:23 51°18.341 2°52.314 22.6899 0.01526 0.081354 -3.020363
2011-07-06 07:25:28 51°18.358 2°52.313 22.6832 0.01526 0.081359 -3.020363
2011-07-06 07:25:33 51°18.376 2°52.313 22.6944 0.01526 0.081363 -3.020363
2011-07-06 07:25:38 51°18.394 2°52.314 22.6873 0.01526 0.081367 -3.020363
2011-07-06 07:25:43 51°18.412 2°52.313 22.697 0.01526 0.081372 -3.020363
2011-07-06 07:25:48 51°18.43 2°52.313 22.7029 0.01526 0.081372 -3.020363
2011-07-06 07:25:53 51°18.448 2°52.311 22.7043 0.01526 0.081372 -3.020363
2011-07-06 07:25:58 51°18.466 2°52.312 22.6979 0.01526 0.08138 -3.020363
2011-07-06 07:26:03 51°18.484 2°52.31 22.7105 0.01526 0.081379 -3.020363
2011-07-06 07:26:08 51°18.502 2°52.31 22.6949 0.01526 0.081379 -3.020363
2011-07-06 07:26:13 51°18.52 2°52.307 22.6921 0.01526 0.08138 -3.020363
2011-07-06 07:26:18 51°18.538 2°52.308 22.707 0.01526 0.081384 -3.020363
2011-07-06 07:26:23 51°18.556 2°52.305 22.7047 0.01526 0.081384 -3.020363
2011-07-06 07:26:28 51°18.573 2°52.306 22.7046 0.01526 0.08138 -3.020363
2011-07-06 07:26:33 51°18.591 2°52.304 22.7129 0.01526 0.081384 -3.020363
2011-07-06 07:26:37 51°18.606 2°52.304 22.7048 0.01526 0.081384 -3.020363
2011-07-06 07:26:43 51°18.627 2°52.302 22.7113 0.01526 0.081387 -3.020363
2011-07-06 07:26:48 51°18.645 2°52.301 22.7114 0.01526 0.081391 -3.020363
2011-07-06 07:26:53 51°18.663 2°52.3 22.6965 0.01526 0.081391 -3.020363
2011-07-06 07:26:58 51°18.681 2°52.299 22.7048 0.01526 0.081393 -3.020363
2011-07-06 07:27:03 51°18.7 2°52.298 22.7092 0.01526 0.081394 -3.020363
2011-07-06 07:27:08 51°18.718 2°52.297 22.7079 0.01526 0.081396 -3.020363
2011-07-06 07:27:13 51°18.736 2°52.297 22.713 0.01526 0.081397 -3.020363
2011-07-06 07:27:18 51°18.754 2°52.296 22.7015 0.01526 0.0814 -3.020363
2011-07-06 07:27:22 51°18.768 2°52.296 22.7068 0.01526 0.0814 -3.020363
2011-07-06 07:27:28 51°18.79 2°52.294 22.7043 0.01526 0.081402 -3.020363
2011-07-06 07:27:33 51°18.807 2°52.295 22.7148 0.01526 0.081399 -3.020363
2011-07-06 07:27:38 51°18.825 2°52.294 22.7051 0.01526 0.081401 -3.020363
2011-07-06 07:27:43 51°18.843 2°52.294 22.7108 0.01526 0.081403 -3.020363
2011-07-06 07:27:48 51°18.861 2°52.294 22.7182 0.01526 0.081405 -3.020363
2011-07-06 07:27:53 51°18.879 2°52.296 22.702 0.01526 0.081405 -3.020363
2011-07-06 07:27:57 51°18.893 2°52.296 22.7177 0.01526 0.081407 -3.020363
2011-07-06 07:28:03 51°18.915 2°52.3 22.7082 0.01526 0.081409 -3.020363
2011-07-06 07:28:08 51°18.933 2°52.3 22.7154 0.01526 0.08141 -3.020363
2011-07-06 07:28:13 51°18.951 2°52.302 22.716 0.01526 0.081411 -3.020363
2011-07-06 07:28:18 51°18.969 2°52.304 22.7083 0.01526 0.081411 -3.020363
2011-07-06 07:28:23 51°18.987 2°52.305 22.7206 0.01526 0.081411 -3.020363
2011-07-06 07:28:28 51°19.005 2°52.308 22.7115 0.01526 0.081413 -3.020363
2011-07-06 07:28:33 51°19.023 2°52.311 22.7274 0.01526 0.081415 -3.020363
2011-07-06 07:28:38 51°19.041 2°52.314 22.717 0.01526 0.081418 -3.020363
2011-07-06 07:28:43 51°19.059 2°52.316 22.7264 0.01526 0.081424 -3.020363
2011-07-06 07:28:48 51°19.077 2°52.32 22.7273 0.01526 0.081426 -3.020363
2011-07-06 07:28:53 51°19.094 2°52.323 22.7149 0.01526 0.081426 -3.020363
2011-07-06 07:28:57 51°19.109 2°52.326 22.7264 0.01526 0.081426 -3.020363
2011-07-06 07:29:03 51°19.13 2°52.331 22.7294 0.01526 0.081426 -3.020363
2011-07-06 07:29:08 51°19.148 2°52.335 22.7282 0.01526 0.081428 -3.020363
2011-07-06 07:29:13 51°19.165 2°52.34 22.7134 0.01526 0.081428 -3.020363
2011-07-06 07:29:18 51°19.183 2°52.343 22.7168 0.01526 0.081428 -3.020363
2011-07-06 07:29:22 51°19.197 2°52.348 22.7211 0.01526 0.081428 -3.020363
2011-07-06 07:29:28 51°19.218 2°52.353 22.728 0.01526 0.081429 -3.020363
2011-07-06 07:29:33 51°19.236 2°52.358 22.7366 0.01526 0.081426 -3.020363
2011-07-06 07:29:38 51°19.254 2°52.361 22.7243 0.01526 0.081432 -3.020363
2011-07-06 07:29:43 51°19.272 2°52.366 22.7275 0.01526 0.081423 -3.020363
2011-07-06 07:29:48 51°19.29 2°52.37 22.7364 0.01526 0.081423 -3.020363
2011-07-06 07:29:53 51°19.307 2°52.374 22.7265 0.01526 0.081423 -3.020363
2011-07-06 07:29:57 51°19.321 2°52.377 22.7208 0.01526 0.081426 -3.020363
2011-07-06 07:30:03 51°19.342 2°52.383 22.7193 0.01526 0.081429 -3.020363
2011-07-06 07:30:08 51°19.36 2°52.389 22.7286 0.01526 0.081433 -3.020363
2011-07-06 07:30:13 51°19.377 2°52.395 22.7276 0.01526 0.081435 -3.020363
2011-07-06 07:30:18 51°19.395 2°52.403 22.7338 0.01526 0.081438 -3.020363
2011-07-06 07:30:23 51°19.412 2°52.411 22.7314 0.01526 0.081438 -3.020363
2011-07-06 07:30:28 51°19.429 2°52.42 22.7224 0.01526 0.08144 -3.020363
2011-07-06 07:30:33 51°19.445 2°52.43 22.742 0.01526 0.08144 -3.020363
2011-07-06 07:30:37 51°19.458 2°52.437 22.7251 0.01526 0.081444 -3.020363
2011-07-06 07:30:43 51°19.479 2°52.447 22.7446 0.01526 0.08145 -3.020363
2011-07-06 07:30:48 51°19.495 2°52.457 22.7295 0.01526 0.081452 -3.020363
2011-07-06 07:30:53 51°19.512 2°52.466 22.7358 0.01526 0.081452 -3.020363
2011-07-06 07:30:57 51°19.525 2°52.474 22.7408 0.01526 0.081452 -3.020363
2011-07-06 07:31:03 51°19.545 2°52.488 22.7257 0.01526 0.081451 -3.020363
2011-07-06 07:31:08 51°19.561 2°52.498 22.7342 0.01526 0.081452 -3.020363
2011-07-06 07:31:13 51°19.577 2°52.512 22.7419 0.01526 0.081452 -3.020363
2011-07-06 07:31:17 51°19.589 2°52.523 22.7437 0.01526 0.081454 -3.020363
2011-07-06 07:31:23 51°19.607 2°52.541 22.7353 0.01526 0.081454 -3.020363
2011-07-06 07:31:28 51°19.621 2°52.557 22.7244 0.01526 0.081454 -3.020363
2011-07-06 07:31:33 51°19.635 2°52.574 22.733 0.01526 0.081458 -3.020363
2011-07-06 07:31:38 51°19.648 2°52.592 22.7385 0.01526 0.081454 -3.020363
2011-07-06 07:31:43 51°19.661 2°52.611 22.7332 0.01526 0.081452 -3.020363
2011-07-06 07:31:48 51°19.674 2°52.63 22.729 0.01526 0.081454 -3.020363
2011-07-06 07:31:53 51°19.685 2°52.651 22.7449 0.01526 0.081454 -3.020363
2011-07-06 07:31:58 51°19.698 2°52.671 22.7391 0.01526 0.08147 -3.020363
2011-07-06 07:32:02 51°19.707 2°52.687 22.7658 0.01526 0.08146 -3.020363
2011-07-06 07:32:08 51°19.72 2°52.713 22.7581 0.01526 0.081464 -3.020363
2011-07-06 07:32:13 51°19.732 2°52.734 22.7409 0.01526 0.08146 -3.020363
2011-07-06 07:32:18 51°19.743 2°52.756 22.7525 0.01526 0.081455 -3.020363
2011-07-06 07:32:23 51°19.754 2°52.778 22.738 0.01526 0.081455 -3.020363
2011-07-06 07:32:28 51°19.765 2°52.799 22.7571 0.01526 0.081456 -3.020363
2011-07-06 07:32:33 51°19.776 2°52.821 22.755 0.01526 0.081462 -3.020363
2011-07-06 07:32:38 51°19.787 2°52.842 22.7499 0.01526 0.081458 -3.020363
2011-07-06 07:32:43 51°19.798 2°52.864 22.764 0.01526 0.081464 -3.020363
2011-07-06 07:32:48 51°19.809 2°52.887 22.7543 0.01526 0.081466 -3.020363
2011-07-06 07:32:53 51°19.821 2°52.907 22.7567 0.01526 0.081466 -3.020363
2011-07-06 07:32:57 51°19.83 2°52.925 22.7545 0.01526 0.081468 -3.020363
2011-07-06 07:33:03 51°19.845 2°52.951 22.7581 0.01526 0.081468 -3.020363
2011-07-06 07:33:08 51°19.856 2°52.973 22.7639 0.01526 0.08147 -3.020363
2011-07-06 07:33:13 51°19.868 2°52.995 22.761 0.01526 0.081471 -3.020363
2011-07-06 07:33:17 51°19.878 2°53.012 22.7647 0.01526 0.081473 -3.020363
2011-07-06 07:33:23 51°19.892 2°53.038 22.7634 0.01526 0.081473 -3.020363
2011-07-06 07:33:28 51°19.904 2°53.059 22.7636 0.01526 0.081474 -3.020363
2011-07-06 07:33:33 51°19.916 2°53.081 22.7688 0.01526 0.081476 -3.020363
2011-07-06 07:33:37 51°19.925 2°53.098 22.7606 0.01526 0.081478 -3.020363
2011-07-06 07:33:43 51°19.94 2°53.123 22.7673 0.01526 0.081479 -3.020363
2011-07-06 07:33:48 51°19.951 2°53.145 22.767 0.01526 0.081479 -3.020363
2011-07-06 07:33:53 51°19.963 2°53.166 22.7484 0.01526 0.081479 -3.020363
2011-07-06 07:33:58 51°19.976 2°53.188 22.7699 0.01526 0.08148 -3.020363
2011-07-06 07:34:02 51°19.984 2°53.206 22.765 0.01526 0.08148 -3.020363
2011-07-06 07:34:08 51°19.999 2°53.232 22.7683 0.01526 0.08148 -3.020363
2011-07-06 07:34:13 51°20.011 2°53.254 22.7695 0.01526 0.081479 -3.020363
2011-07-06 07:34:18 51°20.024 2°53.275 22.7838 0.01526 0.08148 -3.020363
2011-07-06 07:34:23 51°20.036 2°53.296 22.7738 0.01526 0.08148 -3.020363
2011-07-06 07:34:28 51°20.05 2°53.315 22.7793 0.01526 0.081483 -3.020363
2011-07-06 07:34:33 51°20.063 2°53.335 22.7698 0.01526 0.081489 -3.020363
2011-07-06 07:34:37 51°20.074 2°53.35 22.7834 0.01526 0.081487 -3.020363
2011-07-06 07:34:43 51°20.09 2°53.373 22.7644 0.01526 0.081489 -3.020363
2011-07-06 07:34:48 51°20.104 2°53.39 22.7812 0.01526 0.081489 -3.020363
2011-07-06 07:34:53 51°20.117 2°53.409 22.7737 0.01526 0.081489 -3.020363
2011-07-06 07:34:58 51°20.131 2°53.426 22.7755 0.015157 0.080966 -3.020363
2011-07-06 07:35:03 51°20.144 2°53.445 22.7704 0.015157 0.080966 -3.020363
2011-07-06 07:35:08 51°20.157 2°53.462 22.771 0.01526 0.081489 -3.020363
2011-07-06 07:35:13 51°20.17 2°53.48 22.7719 0.015157 0.080967 -3.020363
2011-07-06 07:35:17 51°20.181 2°53.495 22.7638 0.015157 0.080967 -3.020363
2011-07-06 07:35:23 51°20.197 2°53.516 22.78 0.015157 0.080967 -3.020363
2011-07-06 07:35:28 51°20.21 2°53.535 22.7773 0.015157 0.080969 -3.020363
2011-07-06 07:35:33 51°20.224 2°53.552 22.7868 0.015157 0.080969 -3.020363
2011-07-06 07:35:37 51°20.235 2°53.567 22.7822 0.015157 0.08097 -3.020363
2011-07-06 07:35:43 51°20.252 2°53.586 22.79 0.01526 0.081493 -3.020363
2011-07-06 07:35:48 51°20.265 2°53.605 22.7731 0.015157 0.080971 -3.020363
2011-07-06 07:35:53 51°20.28 2°53.62 22.7819 0.015157 0.080971 -3.020363
2011-07-06 07:35:57 51°20.291 2°53.635 22.7851 0.015157 0.08097 -3.020363
2011-07-06 07:36:03 51°20.309 2°53.654 22.7877 0.015157 0.080974 -3.020363
2011-07-06 07:36:08 51°20.322 2°53.671 22.7919 0.015157 0.080979 -3.020363
2011-07-06 07:36:13 51°20.337 2°53.686 22.7821 0.015157 0.080977 -3.020363
2011-07-06 07:36:18 51°20.351 2°53.703 22.7721 0.015157 0.080974 -3.020363
2011-07-06 07:36:23 51°20.365 2°53.718 22.785 0.015157 0.080974 -3.020363
2011-07-06 07:36:28 51°20.379 2°53.736 22.7834 0.015157 0.080973 -3.020363
2011-07-06 07:36:33 51°20.393 2°53.753 22.7842 0.015157 0.080971 -3.020363
2011-07-06 07:36:38 51°20.406 2°53.771 22.7865 0.015157 0.080972 -3.020363
2011-07-06 07:36:42 51°20.416 2°53.785 22.7896 0.015157 0.080973 -3.020363
2011-07-06 07:36:48 51°20.432 2°53.806 22.7773 0.015157 0.080973 -3.020363
2011-07-06 07:36:53 51°20.446 2°53.824 22.7859 0.015157 0.080973 -3.020363
2011-07-06 07:36:58 51°20.459 2°53.843 22.7903 0.015157 0.080974 -3.020363
2011-07-06 07:37:03 51°20.472 2°53.861 22.8155 0.015157 0.080975 -3.020363
2011-07-06 07:37:08 51°20.486 2°53.88 22.7903 0.015157 0.080977 -3.020363
2011-07-06 07:37:13 51°20.5 2°53.897 22.8003 0.015157 0.080973 -3.020363
2011-07-06 07:37:18 51°20.513 2°53.915 22.8023 0.015157 0.080975 -3.020363
2011-07-06 07:37:23 51°20.527 2°53.933 22.804 0.015157 0.080975 -3.020363
2011-07-06 07:37:28 51°20.54 2°53.951 22.7959 0.015157 0.080977 -3.020363
2011-07-06 07:37:33 51°20.553 2°53.969 22.7822 0.015157 0.080977 -3.020363
2011-07-06 07:37:37 51°20.564 2°53.983 22.8088 0.015157 0.080977 -3.020363
2011-07-06 07:37:43 51°20.58 2°54.006 22.7885 0.015157 0.080973 -3.020363
2011-07-06 07:37:48 51°20.594 2°54.022 22.8131 0.015157 0.080966 -3.020363
2011-07-06 07:37:53 51°20.607 2°54.041 22.7931 0.015157 0.080966 -3.020363
2011-07-06 07:37:58 51°20.621 2°54.056 22.8 0.015157 0.080974 -3.020363
2011-07-06 07:38:03 51°20.634 2°54.074 22.8063 0.015157 0.080967 -3.020363
2011-07-06 07:38:08 51°20.648 2°54.091 22.7959 0.015157 0.08097 -3.020363
2011-07-06 07:38:13 51°20.662 2°54.108 22.8044 0.015157 0.080972 -3.020363
2011-07-06 07:38:17 51°20.673 2°54.122 22.8123 0.015157 0.080975 -3.020363
2011-07-06 07:38:23 51°20.689 2°54.143 22.8167 0.015157 0.080975 -3.020363
2011-07-06 07:38:28 51°20.703 2°54.16 22.8109 0.015157 0.080977 -3.020363
2011-07-06 07:38:33 51°20.716 2°54.176 22.8086 0.015157 0.080979 -3.020363
2011-07-06 07:38:37 51°20.728 2°54.189 22.8135 0.015157 0.08098 -3.020363
2011-07-06 07:38:42 51°20.742 2°54.206 22.8144 0.015157 0.080981 -3.020363
2011-07-06 07:38:48 51°20.758 2°54.226 22.8133 0.015157 0.080982 -3.020363
2011-07-06 07:38:53 51°20.772 2°54.242 22.8096 0.015157 0.080982 -3.020363
2011-07-06 07:38:57 51°20.784 2°54.255 22.8215 0.015157 0.080982 -3.020363
2011-07-06 07:39:03 51°20.801 2°54.274 22.8204 0.015157 0.08098 -3.020363
2011-07-06 07:39:08 51°20.816 2°54.29 22.8056 0.015157 0.080981 -3.020363
2011-07-06 07:39:13 51°20.83 2°54.305 22.8099 0.015157 0.080979 -3.020363
2011-07-06 07:39:17 51°20.841 2°54.318 22.8005 0.015157 0.080978 -3.020363
2011-07-06 07:39:23 51°20.858 2°54.338 22.8135 0.015157 0.080978 -3.020363
2011-07-06 07:39:28 51°20.872 2°54.354 22.8218 0.015157 0.080979 -3.020363
2011-07-06 07:39:33 51°20.886 2°54.372 22.7982 0.015157 0.080981 -3.020363
2011-07-06 07:39:38 51°20.899 2°54.389 22.8189 0.015157 0.080982 -3.020363
2011-07-06 07:39:43 51°20.913 2°54.408 22.8272 0.015157 0.080983 -3.020363
2011-07-06 07:39:48 51°20.926 2°54.426 22.8158 0.015157 0.080986 -3.020363
2011-07-06 07:39:53 51°20.941 2°54.443 22.8045 0.015157 0.080986 -3.020363
2011-07-06 07:39:57 51°20.952 2°54.457 22.8297 0.015157 0.080983 -3.020363
2011-07-06 07:40:03 51°20.969 2°54.478 22.8146 0.015157 0.080985 -3.020363
2011-07-06 07:40:08 51°20.983 2°54.496 22.8392 0.015157 0.080978 -3.020363
2011-07-06 07:40:13 51°20.997 2°54.513 22.8224 0.015157 0.080979 -3.020363
2011-07-06 07:40:17 51°21.008 2°54.527 22.8246 0.015157 0.080986 -3.020363
2011-07-06 07:40:23 51°21.025 2°54.547 22.8171 0.015157 0.080986 -3.020363
2011-07-06 07:40:28 51°21.039 2°54.566 22.8393 0.015157 0.080985 -3.020363
2011-07-06 07:40:33 51°21.053 2°54.583 22.8225 0.015157 0.080985 -3.020363
2011-07-06 07:40:37 51°21.064 2°54.597 22.842 0.015157 0.080986 -3.020363
2011-07-06 07:40:42 51°21.077 2°54.615 22.8197 0.015157 0.080983 -3.020363
2011-07-06 07:40:48 51°21.094 2°54.636 22.83 0.015157 0.080985 -3.020363
2011-07-06 07:40:53 51°21.108 2°54.654 22.8357 0.015157 0.080985 -3.020363
2011-07-06 07:40:57 51°21.119 2°54.668 22.8226 0.015157 0.080987 -3.020363
2011-07-06 07:41:02 51°21.134 2°54.685 22.8421 0.015157 0.08099 -3.020363
2011-07-06 07:41:08 51°21.15 2°54.707 22.8183 0.015157 0.080991 -3.020363
2011-07-06 07:41:13 51°21.164 2°54.723 22.8531 0.015157 0.08099 -3.020363
2011-07-06 07:41:17 51°21.175 2°54.739 22.8468 0.015157 0.080996 -3.020363
2011-07-06 07:41:21 51°21.186 2°54.753 22.8366 0.015157 0.080996 -3.020363
2011-07-06 07:41:28 51°21.206 2°54.777 22.8332 0.015157 0.080994 -3.020363
2011-07-06 07:41:32 51°21.217 2°54.789 22.8496 0.015157 0.080993 -3.020363
2011-07-06 07:41:37 51°21.231 2°54.807 22.8286 0.015157 0.080994 -3.020363
2011-07-06 07:41:42 51°21.245 2°54.822 22.8475 0.015157 0.080993 -3.020363
2011-07-06 07:41:48 51°21.262 2°54.843 22.8337 0.015157 0.080994 -3.020363
2011-07-06 07:41:53 51°21.277 2°54.858 22.8357 0.015157 0.080994 -3.020363
2011-07-06 07:41:57 51°21.288 2°54.872 22.8326 0.015157 0.080991 -3.020363
2011-07-06 07:42:03 51°21.305 2°54.892 22.8212 0.015157 0.080995 -3.020363
2011-07-06 07:42:08 51°21.318 2°54.91 22.8467 0.015157 0.080994 -3.020363
2011-07-06 07:42:13 51°21.332 2°54.928 22.8468 0.015157 0.080995 -3.020363
2011-07-06 07:42:17 51°21.344 2°54.942 22.8529 0.015157 0.080994 -3.020363
2011-07-06 07:42:23 51°21.36 2°54.963 22.8386 0.015157 0.080994 -3.020363
2011-07-06 07:42:28 51°21.375 2°54.979 22.8531 0.015157 0.080993 -3.020363
2011-07-06 07:42:32 51°21.385 2°54.995 22.8513 0.015157 0.080993 -3.020363
2011-07-06 07:42:37 51°21.4 2°55.01 22.8546 0.015157 0.080996 -3.020363
2011-07-06 07:42:42 51°21.414 2°55.028 22.8456 0.015157 0.080993 -3.020363
2011-07-06 07:42:48 51°21.43 2°55.047 22.8295 0.015157 0.080989 -3.020363
2011-07-06 07:42:53 51°21.444 2°55.066 22.8769 0.015157 0.080989 -3.020363
2011-07-06 07:42:57 51°21.455 2°55.08 22.8304 0.015157 0.081006 -3.020363
2011-07-06 07:43:01 51°21.466 2°55.093 22.8911 0.015157 0.081006 -3.020363
2011-07-06 07:43:08 51°21.485 2°55.119 22.8568 0.015157 0.081008 -3.020363
2011-07-06 07:43:13 51°21.499 2°55.136 22.8458 0.015157 0.081012 -3.020363
2011-07-06 07:43:17 51°21.51 2°55.149 22.8674 0.015157 0.08101 -3.020363
2011-07-06 07:43:21 51°21.52 2°55.165 22.8478 0.015157 0.08101 -3.020363
2011-07-06 07:43:27 51°21.537 2°55.185 22.8524 0.015157 0.080999 -3.020363
2011-07-06 07:43:33 51°21.553 2°55.207 22.862 0.015157 0.080991 -3.020363
2011-07-06 07:43:37 51°21.564 2°55.221 22.8464 0.015157 0.081002 -3.020363
2011-07-06 07:43:41 51°21.576 2°55.236 22.8641 0.015157 0.081011 -3.020363
2011-07-06 07:43:48 51°21.594 2°55.262 22.8579 0.015157 0.081006 -3.020363
2011-07-06 07:43:52 51°21.605 2°55.277 22.875 0.015157 0.081006 -3.020363
2011-07-06 07:43:57 51°21.619 2°55.296 22.851 0.015157 0.081004 -3.020363
2011-07-06 07:44:02 51°21.633 2°55.313 22.8437 0.015157 0.081003 -3.020363
2011-07-06 07:44:08 51°21.648 2°55.336 22.8629 0.015157 0.08101 -3.020363
2011-07-06 07:44:13 51°21.663 2°55.353 22.8684 0.015157 0.081015 -3.020363
2011-07-06 07:44:17 51°21.674 2°55.368 22.8737 0.015157 0.081008 -3.020363
2011-07-06 07:44:23 51°21.69 2°55.389 22.878 0.015157 0.081008 -3.020363
2011-07-06 07:44:28 51°21.703 2°55.408 22.8878 0.015157 0.081006 -3.020363
2011-07-06 07:44:33 51°21.717 2°55.426 22.8622 0.015157 0.081006 -3.020363
2011-07-06 07:44:37 51°21.728 2°55.439 22.8779 0.015157 0.081003 -3.020363
2011-07-06 07:44:43 51°21.745 2°55.461 22.8657 0.015157 0.081002 -3.020363
2011-07-06 07:44:48 51°21.759 2°55.477 22.8768 0.015157 0.081002 -3.020363
2011-07-06 07:44:53 51°21.772 2°55.496 22.8853 0.015157 0.081002 -3.020363
2011-07-06 07:44:57 51°21.784 2°55.509 22.8871 0.015157 0.080999 -3.020363
2011-07-06 07:45:02 51°21.798 2°55.525 22.8801 0.015157 0.080991 -3.020363
2011-07-06 07:45:08 51°21.815 2°55.545 22.8859 0.015157 0.080996 -3.020363
2011-07-06 07:45:13 51°21.83 2°55.562 22.8707 0.015157 0.080998 -3.020363
2011-07-06 07:45:17 51°21.841 2°55.575 22.8868 0.015157 0.080998 -3.020363
2011-07-06 07:45:21 51°21.852 2°55.589 22.8864 0.015157 0.080998 -3.020363
2011-07-06 07:45:28 51°21.873 2°55.612 22.8813 0.015157 0.081001 -3.020363
2011-07-06 07:45:33 51°21.887 2°55.628 22.8746 0.015157 0.081002 -3.020363
2011-07-06 07:45:37 51°21.899 2°55.641 22.8814 0.015157 0.081005 -3.020363
2011-07-06 07:45:41 51°21.91 2°55.655 22.876 0.015157 0.081002 -3.020363
2011-07-06 07:45:47 51°21.927 2°55.674 22.8876 0.015157 0.081003 -3.020363
2011-07-06 07:45:53 51°21.944 2°55.694 22.8921 0.015157 0.081003 -3.020363
2011-07-06 07:45:57 51°21.955 2°55.707 22.8851 0.015157 0.081004 -3.020363
2011-07-06 07:46:03 51°21.973 2°55.727 22.88 0.015157 0.081005 -3.020363
2011-07-06 07:46:08 51°21.987 2°55.742 22.8948 0.015157 0.081005 -3.020363
2011-07-06 07:46:12 51°21.998 2°55.756 22.8668 0.015157 0.081008 -3.020363
2011-07-06 07:46:17 51°22.013 2°55.771 22.8647 0.015157 0.081006 -3.020363
2011-07-06 07:46:22 51°22.027 2°55.788 22.872 0.015157 0.081006 -3.020363
2011-07-06 07:46:28 51°22.043 2°55.809 22.8831 0.015157 0.081004 -3.020363
2011-07-06 07:46:33 51°22.058 2°55.826 22.884 0.015157 0.081004 -3.020363
2011-07-06 07:46:37 51°22.069 2°55.84 22.8895 0.015157 0.081008 -3.020363
2011-07-06 07:46:43 51°22.086 2°55.861 22.8887 0.015157 0.08101 -3.020363
2011-07-06 07:46:48 51°22.101 2°55.877 22.8834 0.015157 0.081012 -3.020363
2011-07-06 07:46:52 51°22.113 2°55.89 22.8938 0.015157 0.081012 -3.020363
2011-07-06 07:46:57 51°22.127 2°55.907 22.8914 0.015157 0.081015 -3.020363
2011-07-06 07:47:03 51°22.145 2°55.927 22.8987 0.015157 0.081013 -3.020363
2011-07-06 07:47:08 51°22.159 2°55.943 22.8992 0.015157 0.081013 -3.020363
2011-07-06 07:47:13 51°22.174 2°55.96 22.8897 0.015157 0.081013 -3.020363
2011-07-06 07:47:17 51°22.186 2°55.973 22.9029 0.015157 0.081013 -3.020363
2011-07-06 07:47:22 51°22.2 2°55.99 22.8758 0.015157 0.081013 -3.020363
2011-07-06 07:47:28 51°22.218 2°56.01 22.8784 0.015157 0.081013 -3.020363
2011-07-06 07:47:33 51°22.231 2°56.028 22.8936 0.015157 0.081013 -3.020363
2011-07-06 07:47:37 51°22.243 2°56.042 22.8977 0.015157 0.081013 -3.020363
2011-07-06 07:47:41 51°22.254 2°56.056 22.877 0.015157 0.081012 -3.020363
2011-07-06 07:47:47 51°22.271 2°56.078 22.8964 0.015157 0.081012 -3.020363
2011-07-06 07:47:53 51°22.287 2°56.101 22.8895 0.015157 0.081012 -3.020363
2011-07-06 07:47:57 51°22.299 2°56.114 22.8991 0.015157 0.081016 -3.020363
2011-07-06 07:48:01 51°22.31 2°56.129 22.9065 0.015157 0.081013 -3.020363
2011-07-06 07:48:08 51°22.329 2°56.155 22.9019 0.015157 0.081008 -3.020363
2011-07-06 07:48:13 51°22.343 2°56.173 22.9004 0.015157 0.081006 -3.020363
2011-07-06 07:48:17 51°22.354 2°56.188 22.8825 0.015157 0.081007 -3.020363
2011-07-06 07:48:22 51°22.368 2°56.205 22.911 0.015157 0.081007 -3.020363
2011-07-06 07:48:27 51°22.382 2°56.224 22.8997 0.015157 0.081008 -3.020363
2011-07-06 07:48:33 51°22.399 2°56.244 22.9135 0.015157 0.08101 -3.020363
2011-07-06 07:48:37 51°22.41 2°56.259 22.9095 0.015157 0.08101 -3.020363
2011-07-06 07:48:43 51°22.427 2°56.28 22.9065 0.015157 0.081011 -3.020363
2011-07-06 07:48:48 51°22.44 2°56.298 22.9153 0.015157 0.081013 -3.020363
2011-07-06 07:48:53 51°22.454 2°56.315 22.9223 0.015157 0.081013 -3.020363
2011-07-06 07:48:57 51°22.465 2°56.33 22.9113 0.015157 0.081013 -3.020363
2011-07-06 07:49:03 51°22.482 2°56.35 22.9145 0.015157 0.081013 -3.020363
2011-07-06 07:49:08 51°22.495 2°56.368 22.8974 0.015157 0.081014 -3.020363
2011-07-06 07:49:12 51°22.505 2°56.382 22.9044 0.015157 0.081015 -3.020363
2011-07-06 07:49:17 51°22.518 2°56.4 22.9022 0.015157 0.081015 -3.020363
2011-07-06 07:49:22 51°22.531 2°56.418 22.9153 0.015157 0.081015 -3.020363
2011-07-06 07:49:28 51°22.546 2°56.442 22.9078 0.015157 0.081015 -3.020363
2011-07-06 07:49:33 51°22.558 2°56.461 22.9222 0.015157 0.081016 -3.020363
2011-07-06 07:49:37 51°22.568 2°56.477 22.9114 0.015157 0.081016 -3.020363
2011-07-06 07:49:41 51°22.579 2°56.491 22.9148 0.015157 0.081018 -3.020363
2011-07-06 07:49:48 51°22.596 2°56.519 22.9044 0.015157 0.081018 -3.020363
2011-07-06 07:49:53 51°22.609 2°56.537 22.9003 0.015157 0.081018 -3.020363
2011-07-06 07:49:57 51°22.619 2°56.552 22.9193 0.015157 0.081018 -3.020363
2011-07-06 07:50:01 51°22.629 2°56.568 22.9227 0.015157 0.081018 -3.020363
2011-07-06 07:50:07 51°22.644 2°56.591 22.9291 0.015157 0.081019 -3.020363
2011-07-06 07:50:13 51°22.66 2°56.613 22.9174 0.015157 0.081019 -3.020363
2011-07-06 07:50:17 51°22.671 2°56.628 22.921 0.015157 0.081019 -3.020363
2011-07-06 07:50:21 51°22.681 2°56.643 22.8907 0.015157 0.081019 -3.020363
2011-07-06 07:50:28 51°22.7 2°56.667 22.8988 0.015157 0.081019 -3.020363
2011-07-06 07:50:33 51°22.713 2°56.688 22.9214 0.015157 0.081018 -3.020363
2011-07-06 07:50:37 51°22.724 2°56.702 22.9218 0.015157 0.081013 -3.020363
2011-07-06 07:50:42 51°22.736 2°56.721 22.932 0.015157 0.081016 -3.020363
2011-07-06 07:50:48 51°22.752 2°56.743 22.916 0.015157 0.081021 -3.020363
2011-07-06 07:50:53 51°22.765 2°56.761 22.9246 0.015157 0.081021 -3.020363
2011-07-06 07:50:57 51°22.775 2°56.776 22.9299 0.015157 0.08102 -3.020363
2011-07-06 07:51:03 51°22.791 2°56.798 22.9369 0.015157 0.081018 -3.020363
2011-07-06 07:51:08 51°22.803 2°56.818 22.9612 0.015157 0.081019 -3.020363
2011-07-06 07:51:12 51°22.813 2°56.834 22.9269 0.015157 0.081022 -3.020363
2011-07-06 07:51:17 51°22.827 2°56.851 22.924 0.015157 0.081021 -3.020363
2011-07-06 07:51:23 51°22.842 2°56.873 22.9347 0.015157 0.081021 -3.020363
2011-07-06 07:51:28 51°22.855 2°56.892 22.9225 0.015157 0.08102 -3.020363
2011-07-06 07:51:32 51°22.865 2°56.907 22.9312 0.015157 0.081019 -3.020363
2011-07-06 07:51:37 51°22.877 2°56.926 22.9448 0.015157 0.081019 -3.020363
2011-07-06 07:51:42 51°22.889 2°56.947 22.9265 0.015157 0.08102 -3.020363
2011-07-06 07:51:48 51°22.903 2°56.97 22.937 0.015157 0.08102 -3.020363
2011-07-06 07:51:52 51°22.913 2°56.987 22.9417 0.015157 0.08102 -3.020363
2011-07-06 07:51:57 51°22.924 2°57.007 22.8977 0.015157 0.08102 -3.020363
2011-07-06 07:52:02 51°22.936 2°57.027 22.9299 0.015157 0.081016 -3.020363
2011-07-06 07:52:08 51°22.949 2°57.054 22.9206 0.015157 0.081019 -3.020363
2011-07-06 07:52:12 51°22.959 2°57.071 22.9505 0.015157 0.081014 -3.020363
2011-07-06 07:52:17 51°22.969 2°57.093 22.9256 0.015157 0.081019 -3.020363
2011-07-06 07:52:22 51°22.981 2°57.114 22.9486 0.015157 0.081019 -3.020363
2011-07-06 07:52:27 51°22.992 2°57.135 22.9363 0.015157 0.081024 -3.020363
2011-07-06 07:52:33 51°23.006 2°57.16 22.9351 0.015157 0.081024 -3.020363
2011-07-06 07:52:37 51°23.014 2°57.177 22.9526 0.015157 0.081022 -3.020363
2011-07-06 07:52:42 51°23.025 2°57.197 22.9387 0.015157 0.081021 -3.020363
2011-07-06 07:52:47 51°23.037 2°57.217 22.9517 0.015157 0.08102 -3.020363
2011-07-06 07:52:53 51°23.052 2°57.241 22.9426 0.015157 0.08102 -3.020363
2011-07-06 07:52:57 51°23.062 2°57.256 22.9393 0.015157 0.081019 -3.020363
2011-07-06 07:53:02 51°23.075 2°57.276 22.9311 0.015157 0.08102 -3.020363
2011-07-06 07:53:07 51°23.088 2°57.295 22.9494 0.015157 0.081021 -3.020363
2011-07-06 07:53:12 51°23.101 2°57.315 22.9456 0.015157 0.081022 -3.020363
2011-07-06 07:53:17 51°23.114 2°57.334 22.9421 0.015157 0.08102 -3.020363
2011-07-06 07:53:22 51°23.127 2°57.354 22.9488 0.015157 0.08102 -3.020363
2011-07-06 07:53:27 51°23.14 2°57.373 22.9572 0.015157 0.081019 -3.020363
2011-07-06 07:53:33 51°23.155 2°57.396 22.9511 0.015157 0.081021 -3.020363
2011-07-06 07:53:37 51°23.165 2°57.411 22.9644 0.015157 0.081022 -3.020363
2011-07-06 07:53:42 51°23.178 2°57.429 22.9576 0.015157 0.081023 -3.020363
2011-07-06 07:53:48 51°23.193 2°57.451 22.9649 0.015157 0.081024 -3.020363
2011-07-06 07:53:53 51°23.206 2°57.468 22.9579 0.015157 0.081024 -3.020363
2011-07-06 07:53:57 51°23.217 2°57.483 22.9612 0.015157 0.081028 -3.020363
2011-07-06 07:54:02 51°23.23 2°57.501 22.9203 0.015157 0.081029 -3.020363
2011-07-06 07:54:08 51°23.246 2°57.522 22.9546 0.015157 0.081024 -3.020363
2011-07-06 07:54:13 51°23.258 2°57.54 22.9513 0.015157 0.081028 -3.020363
2011-07-06 07:54:17 51°23.268 2°57.555 22.9693 0.015157 0.081027 -3.020363
2011-07-06 07:54:22 51°23.281 2°57.574 22.9437 0.015157 0.081027 -3.020363
2011-07-06 07:54:28 51°23.297 2°57.595 22.9478 0.015157 0.081026 -3.020363
2011-07-06 07:54:33 51°23.309 2°57.615 22.9586 0.015157 0.081022 -3.020363
2011-07-06 07:54:37 51°23.319 2°57.63 22.9615 0.015157 0.081021 -3.020363
2011-07-06 07:54:42 51°23.331 2°57.65 22.9524 0.015157 0.081023 -3.020363
2011-07-06 07:54:47 51°23.344 2°57.669 22.9631 0.015157 0.081024 -3.020363
2011-07-06 07:54:53 51°23.359 2°57.692 22.9698 0.015157 0.081024 -3.020363
2011-07-06 07:54:57 51°23.369 2°57.708 22.9625 0.015157 0.081026 -3.020363
2011-07-06 07:55:02 51°23.382 2°57.726 22.9711 0.015157 0.081027 -3.020363
2011-07-06 07:55:07 51°23.394 2°57.745 22.9709 0.015157 0.081028 -3.020363
2011-07-06 07:55:12 51°23.407 2°57.764 22.972 0.015157 0.081028 -3.020363
2011-07-06 07:55:17 51°23.419 2°57.783 22.947 0.015157 0.081028 -3.020363
2011-07-06 07:55:22 51°23.433 2°57.8 22.9565 0.015157 0.081028 -3.020363
2011-07-06 07:55:27 51°23.445 2°57.82 22.9667 0.015157 0.081028 -3.020363
2011-07-06 07:55:32 51°23.458 2°57.839 22.9674 0.015157 0.081028 -3.020363
2011-07-06 07:55:37 51°23.47 2°57.859 22.9779 0.015157 0.081026 -3.020363
2011-07-06 07:55:42 51°23.483 2°57.878 22.9709 0.015157 0.081029 -3.020363
2011-07-06 07:55:47 51°23.496 2°57.897 22.984 0.015157 0.081032 -3.020363
2011-07-06 07:55:53 51°23.511 2°57.92 22.9774 0.015157 0.081032 -3.020363
2011-07-06 07:55:57 51°23.522 2°57.935 22.9799 0.015157 0.081031 -3.020363
2011-07-06 07:56:02 51°23.535 2°57.953 22.9598 0.015157 0.08103 -3.020363
2011-07-06 07:56:07 51°23.549 2°57.971 22.9649 0.015157 0.08103 -3.020363
2011-07-06 07:56:13 51°23.565 2°57.992 22.9796 0.015157 0.08103 -3.020363
2011-07-06 07:56:17 51°23.575 2°58.007 22.9629 0.015157 0.081031 -3.020363
2011-07-06 07:56:22 51°23.589 2°58.024 22.9805 0.015157 0.081031 -3.020363
2011-07-06 07:56:28 51°23.605 2°58.046 22.9583 0.015157 0.081032 -3.020363
2011-07-06 07:56:32 51°23.617 2°58.058 22.9703 0.015157 0.081031 -3.020363
2011-07-06 07:56:37 51°23.63 2°58.077 22.9689 0.015157 0.081031 -3.020363
2011-07-06 07:56:42 51°23.644 2°58.094 22.9598 0.015157 0.081032 -3.020363
2011-07-06 07:56:48 51°23.66 2°58.116 22.9796 0.015157 0.081031 -3.020363
2011-07-06 07:56:53 51°23.674 2°58.134 22.9725 0.015157 0.081031 -3.020363
2011-07-06 07:56:57 51°23.685 2°58.148 22.9763 0.015157 0.081031 -3.020363
2011-07-06 07:57:02 51°23.698 2°58.166 22.9652 0.015157 0.081034 -3.020363
2011-07-06 07:57:08 51°23.715 2°58.188 22.9587 0.015157 0.081035 -3.020363
2011-07-06 07:57:13 51°23.728 2°58.207 22.9795 0.015157 0.081035 -3.020363
2011-07-06 07:57:17 51°23.738 2°58.223 22.9901 0.015157 0.081036 -3.020363
2011-07-06 07:57:22 51°23.751 2°58.242 22.9873 0.015157 0.081036 -3.020363
2011-07-06 07:57:27 51°23.764 2°58.262 22.9719 0.015157 0.081037 -3.020363
2011-07-06 07:57:33 51°23.78 2°58.284 22.9823 0.015157 0.081037 -3.020363
2011-07-06 07:57:37 51°23.79 2°58.299 22.9657 0.015157 0.081036 -3.020363
2011-07-06 07:57:42 51°23.804 2°58.317 22.9902 0.015157 0.081036 -3.020363
2011-07-06 07:57:48 51°23.82 2°58.34 22.9734 0.015157 0.081037 -3.020363
2011-07-06 07:57:53 51°23.834 2°58.357 22.9774 0.015157 0.081037 -3.020363
2011-07-06 07:57:57 51°23.844 2°58.373 22.9757 0.015157 0.081037 -3.020363
2011-07-06 07:58:02 51°23.857 2°58.391 22.9784 0.015157 0.081037 -3.020363
2011-07-06 07:58:08 51°23.872 2°58.414 22.9904 0.015157 0.081043 -3.020363
2011-07-06 07:58:12 51°23.883 2°58.429 22.9773 0.015157 0.081042 -3.020363
2011-07-06 07:58:17 51°23.896 2°58.448 22.9975 0.015157 0.081043 -3.020363
2011-07-06 07:58:22 51°23.908 2°58.467 22.9895 0.015157 0.081043 -3.020363
2011-07-06 07:58:27 51°23.921 2°58.486 22.9974 0.015157 0.081042 -3.020363
2011-07-06 07:58:32 51°23.934 2°58.506 22.9929 0.015157 0.081043 -3.020363
2011-07-06 07:58:37 51°23.947 2°58.525 23.007 0.015157 0.081043 -3.020363
2011-07-06 07:58:42 51°23.959 2°58.544 22.9943 0.015157 0.081044 -3.020363
2011-07-06 07:58:48 51°23.975 2°58.566 23.0004 0.015157 0.081042 -3.020363
2011-07-06 07:58:52 51°23.985 2°58.581 22.9883 0.015157 0.081042 -3.020363
2011-07-06 07:58:57 51°23.998 2°58.599 22.9954 0.015157 0.081039 -3.020363
2011-07-06 07:59:02 51°24.011 2°58.618 23.0019 0.015157 0.081038 -3.020363
2011-07-06 07:59:07 51°24.024 2°58.636 23.0079 0.015157 0.081039 -3.020363
2011-07-06 07:59:12 51°24.037 2°58.655 22.9901 0.015157 0.08104 -3.020363
2011-07-06 07:59:17 51°24.05 2°58.673 23.0148 0.015157 0.081038 -3.020363
2011-07-06 07:59:22 51°24.062 2°58.692 23.0096 0.015157 0.081038 -3.020363
2011-07-06 07:59:28 51°24.078 2°58.714 23.0101 0.015157 0.081045 -3.020363
2011-07-06 07:59:33 51°24.092 2°58.733 22.9857 0.015054 0.080523 -3.020363
2011-07-06 07:59:37 51°24.103 2°58.746 23.0036 0.015157 0.081043 -3.020363
2011-07-06 07:59:42 51°24.116 2°58.766 22.9982 0.015054 0.080518 -3.020363
2011-07-06 07:59:47 51°24.129 2°58.783 23.0086 0.015054 0.080518 -3.020363
2011-07-06 07:59:53 51°24.144 2°58.806 22.9956 0.015054 0.080518 -3.020363
2011-07-06 07:59:57 51°24.155 2°58.82 23.0043 0.015054 0.080517 -3.020363
2011-07-06 08:00:02 51°24.168 2°58.838 22.9938 0.015054 0.080518 -3.020363
2011-07-06 08:00:07 51°24.182 2°58.856 23.0011 0.015054 0.080518 -3.020363
2011-07-06 08:00:12 51°24.195 2°58.875 22.998 0.015054 0.080519 -3.020363
2011-07-06 08:00:17 51°24.208 2°58.893 23.0073 0.015157 0.081043 -3.020363
2011-07-06 08:00:22 51°24.221 2°58.912 23.0206 0.015157 0.081043 -3.020363
2011-07-06 08:00:28 51°24.237 2°58.934 23.027 0.015054 0.080521 -3.020363
2011-07-06 08:00:32 51°24.248 2°58.949 23.0051 0.015054 0.080524 -3.020363
2011-07-06 08:00:37 51°24.262 2°58.965 23.0156 0.015157 0.081046 -3.020363
2011-07-06 08:00:42 51°24.276 2°58.982 23.0332 0.015054 0.080522 -3.020363
2011-07-06 08:00:48 51°24.293 2°59.001 23.0149 0.015054 0.080523 -3.020363
2011-07-06 08:00:52 51°24.306 2°59.013 22.9996 0.015054 0.080523 -3.020363
2011-07-06 08:00:57 51°24.321 2°59.028 23.0287 0.015054 0.080524 -3.020363
2011-07-06 08:01:02 51°24.336 2°59.044 22.9966 0.015054 0.080523 -3.020363
2011-07-06 08:01:07 51°24.351 2°59.058 23.0176 0.015054 0.080517 -3.020363
2011-07-06 08:01:13 51°24.369 2°59.076 23.0132 0.015054 0.080516 -3.020363
2011-07-06 08:01:17 51°24.382 2°59.087 23.0304 0.015054 0.080517 -3.020363
2011-07-06 08:01:22 51°24.397 2°59.103 23.0256 0.015054 0.080517 -3.020363
2011-07-06 08:01:27 51°24.413 2°59.117 23.0155 0.015054 0.080518 -3.020363
2011-07-06 08:01:33 51°24.431 2°59.134 23.0266 0.015054 0.080519 -3.020363
2011-07-06 08:01:37 51°24.444 2°59.145 22.9944 0.015054 0.080521 -3.020363
2011-07-06 08:01:42 51°24.46 2°59.158 23.0263 0.015054 0.080521 -3.020363
2011-07-06 08:01:48 51°24.478 2°59.175 22.9888 0.015054 0.080522 -3.020363
2011-07-06 08:01:52 51°24.491 2°59.186 23.0464 0.015054 0.080522 -3.020363
2011-07-06 08:01:57 51°24.506 2°59.201 23.0169 0.015054 0.080523 -3.020363
2011-07-06 08:02:02 51°24.522 2°59.214 23.0377 0.015054 0.080518 -3.020363
2011-07-06 08:02:07 51°24.537 2°59.229 23.0403 0.015054 0.080515 -3.020363
2011-07-06 08:02:12 51°24.553 2°59.242 23.0314 0.015054 0.080515 -3.020363
2011-07-06 08:02:17 51°24.57 2°59.255 23.027 0.015054 0.080517 -3.020363
2011-07-06 08:02:22 51°24.586 2°59.269 23.0101 0.015054 0.080517 -3.020363
2011-07-06 08:02:28 51°24.605 2°59.284 23.0394 0.015054 0.080518 -3.020363
2011-07-06 08:02:32 51°24.618 2°59.296 23.0148 0.015054 0.080521 -3.020363
2011-07-06 08:02:37 51°24.634 2°59.309 23.0585 0.015054 0.080519 -3.020363
2011-07-06 08:02:42 51°24.649 2°59.325 23.0367 0.015054 0.080543 -3.020363
2011-07-06 08:02:48 51°24.668 2°59.34 23.0268 0.015054 0.080538 -3.020363
2011-07-06 08:02:52 51°24.68 2°59.351 23.0127 0.015054 0.080538 -3.020363
2011-07-06 08:02:57 51°24.695 2°59.366 23.0438 0.015054 0.08053 -3.020363
2011-07-06 08:03:02 51°24.71 2°59.381 22.9995 0.015054 0.080531 -3.020363
2011-07-06 08:03:07 51°24.726 2°59.394 23.0491 0.015054 0.080532 -3.020363
2011-07-06 08:03:13 51°24.744 2°59.413 23.0224 0.015054 0.08053 -3.020363
2011-07-06 08:03:17 51°24.757 2°59.423 23.035 0.015054 0.08053 -3.020363
2011-07-06 08:03:22 51°24.772 2°59.438 23.0692 0.015054 0.08053 -3.020363
2011-07-06 08:03:28 51°24.791 2°59.456 23.0536 0.015054 0.080531 -3.020363
2011-07-06 08:03:32 51°24.803 2°59.467 23.0281 0.015054 0.080526 -3.020363
2011-07-06 08:03:37 51°24.819 2°59.48 23.0443 0.015054 0.080524 -3.020363
2011-07-06 08:03:42 51°24.834 2°59.495 23.0047 0.015054 0.080524 -3.020363
2011-07-06 08:03:47 51°24.85 2°59.509 23.023 0.015054 0.080522 -3.020363
2011-07-06 08:03:53 51°24.867 2°59.528 23.0318 0.015054 0.080522 -3.020363
2011-07-06 08:03:57 51°24.879 2°59.541 23.0451 0.015054 0.080524 -3.020363
2011-07-06 08:04:01 51°24.89 2°59.553 23.0463 0.015054 0.080524 -3.020363
2011-07-06 08:04:07 51°24.908 2°59.572 23.0442 0.015054 0.080529 -3.020363
2011-07-06 08:04:12 51°24.923 2°59.588 23.0429 0.015054 0.080529 -3.020363
2011-07-06 08:04:17 51°24.938 2°59.604 23.0575 0.015054 0.080527 -3.020363
2011-07-06 08:04:22 51°24.952 2°59.62 23.0293 0.015054 0.080527 -3.020363
2011-07-06 08:04:27 51°24.968 2°59.634 23.0475 0.015054 0.080526 -3.020363
2011-07-06 08:04:33 51°24.985 2°59.655 23.0479 0.015054 0.080526 -3.020363
2011-07-06 08:04:37 51°24.998 2°59.667 23.0398 0.015054 0.080527 -3.020363
2011-07-06 08:04:42 51°25.012 2°59.683 23.0481 0.015054 0.080529 -3.020363
2011-07-06 08:04:47 51°25.027 2°59.7 23.049 0.015054 0.08053 -3.020363
2011-07-06 08:04:53 51°25.045 2°59.719 23.0602 0.015054 0.08053 -3.020363
2011-07-06 08:04:57 51°25.057 2°59.733 23.0635 0.015054 0.08053 -3.020363
2011-07-06 08:05:02 51°25.071 2°59.748 23.0535 0.015054 0.080532 -3.020363
2011-07-06 08:05:08 51°25.089 2°59.768 23.0594 0.015054 0.080535 -3.020363
2011-07-06 08:05:12 51°25.101 2°59.78 23.0255 0.015054 0.080532 -3.020363
2011-07-06 08:05:17 51°25.117 2°59.795 23.0528 0.015054 0.080533 -3.020363
2011-07-06 08:05:22 51°25.131 2°59.812 23.0497 0.015054 0.080533 -3.020363
2011-07-06 08:05:28 51°25.149 2°59.831 23.0794 0.015054 0.080533 -3.020363
2011-07-06 08:05:33 51°25.164 2°59.847 23.068 0.015054 0.080535 -3.020363
2011-07-06 08:05:37 51°25.175 2°59.859 23.0462 0.015054 0.080538 -3.020363
2011-07-06 08:05:41 51°25.188 2°59.871 23.052 0.015054 0.08053 -3.020363
2011-07-06 08:05:48 51°25.207 2°59.894 23.0619 0.015054 0.08053 -3.020363
2011-07-06 08:05:52 51°25.219 2°59.906 23.0539 0.015054 0.08053 -3.020363
2011-07-06 08:05:57 51°25.234 2°59.921 23.0692 0.015054 0.080531 -3.020363
2011-07-06 08:06:02 51°25.248 2°59.937 23.0951 0.015054 0.08053 -3.020363
2011-07-06 08:06:07 51°25.263 2°59.954 23.0714 0.015054 0.080531 -3.020363
2011-07-06 08:06:13 51°25.281 2°59.972 23.0569 0.015054 0.080533 -3.020363
2011-07-06 08:06:17 51°25.293 2°59.984 23.0711 0.015054 0.080536 -3.020363
2011-07-06 08:06:22 51°25.307 2°60 23.0687 0.015054 0.080536 -3.020363
2011-07-06 08:06:28 51°25.325 3°0.019 23.086 0.015054 0.080535 -3.020363
2011-07-06 08:06:33 51°25.34 3°0.035 23.0621 0.015054 0.080536 -3.020363
2011-07-06 08:06:37 51°25.352 3°0.047 23.0782 0.015054 0.080536 -3.020363
2011-07-06 08:06:42 51°25.366 3°0.064 23.0764 0.015054 0.080538 -3.020363
2011-07-06 08:06:47 51°25.382 3°0.079 23.0843 0.015054 0.080538 -3.020363
2011-07-06 08:06:53 51°25.399 3°0.1 23.0474 0.015054 0.080538 -3.020363
2011-07-06 08:06:57 51°25.411 3°0.11 23.0522 0.015054 0.080538 -3.020363
2011-07-06 08:07:02 51°25.425 3°0.127 23.0579 0.015054 0.080536 -3.020363
2011-07-06 08:07:08 51°25.443 3°0.145 23.0439 0.015054 0.080536 -3.020363
2011-07-06 08:07:12 51°25.454 3°0.158 23.0831 0.015054 0.080539 -3.020363
2011-07-06 08:07:17 51°25.469 3°0.176 23.0765 0.015054 0.080538 -3.020363
2011-07-06 08:07:22 51°25.484 3°0.192 23.1038 0.015054 0.080538 -3.020363
2011-07-06 08:07:28 51°25.5 3°0.213 23.0726 0.015054 0.080535 -3.020363
2011-07-06 08:07:32 51°25.513 3°0.224 23.0891 0.015054 0.080539 -3.020363
2011-07-06 08:07:37 51°25.527 3°0.242 23.0705 0.015054 0.080536 -3.020363
2011-07-06 08:07:42 51°25.542 3°0.256 23.0935 0.015054 0.080533 -3.020363
2011-07-06 08:07:48 51°25.56 3°0.276 23.0683 0.015054 0.080539 -3.020363
2011-07-06 08:07:53 51°25.575 3°0.291 23.0865 0.015054 0.080539 -3.020363
2011-07-06 08:07:57 51°25.587 3°0.304 23.0948 0.015054 0.080538 -3.020363
2011-07-06 08:08:02 51°25.602 3°0.32 23.0596 0.015054 0.080536 -3.020363
2011-07-06 08:08:07 51°25.618 3°0.333 23.0593 0.015054 0.080535 -3.020363
2011-07-06 08:08:13 51°25.635 3°0.354 23.0832 0.015054 0.080538 -3.020363
2011-07-06 08:08:17 51°25.648 3°0.365 23.0593 0.015054 0.080533 -3.020363
2011-07-06 08:08:22 51°25.663 3°0.381 23.1105 0.015054 0.080533 -3.020363
2011-07-06 08:08:27 51°25.677 3°0.397 23.0848 0.015054 0.080541 -3.020363
2011-07-06 08:08:33 51°25.695 3°0.416 23.0836 0.015054 0.080539 -3.020363
2011-07-06 08:08:37 51°25.707 3°0.429 23.1105 0.015054 0.080539 -3.020363
2011-07-06 08:08:42 51°25.721 3°0.446 23.0557 0.015054 0.080544 -3.020363
2011-07-06 08:08:47 51°25.737 3°0.46 23.1167 0.015054 0.080547 -3.020363
2011-07-06 08:08:52 51°25.751 3°0.478 23.0822 0.015054 0.080547 -3.020363
2011-07-06 08:08:57 51°25.767 3°0.493 23.0921 0.015054 0.080551 -3.020363
2011-07-06 08:09:02 51°25.782 3°0.511 23.0877 0.015054 0.080548 -3.020363
2011-07-06 08:09:08 51°25.8 3°0.53 23.11 0.015054 0.080546 -3.020363
2011-07-06 08:09:12 51°25.812 3°0.543 23.0992 0.015054 0.080546 -3.020363
2011-07-06 08:09:17 51°25.827 3°0.56 23.1104 0.015054 0.080547 -3.020363
2011-07-06 08:09:22 51°25.842 3°0.576 23.1141 0.015054 0.080547 -3.020363
2011-07-06 08:09:27 51°25.857 3°0.592 23.1203 0.015054 0.080547 -3.020363
2011-07-06 08:09:33 51°25.875 3°0.611 23.0964 0.015054 0.080548 -3.020363
2011-07-06 08:09:37 51°25.887 3°0.623 23.095 0.015054 0.080547 -3.020363
2011-07-06 08:09:42 51°25.902 3°0.639 23.0682 0.015054 0.080547 -3.020363
2011-07-06 08:09:48 51°25.92 3°0.658 23.1147 0.015054 0.080547 -3.020363
2011-07-06 08:09:53 51°25.935 3°0.674 23.0996 0.015054 0.080547 -3.020363
2011-07-06 08:09:57 51°25.946 3°0.687 23.0954 0.015054 0.080546 -3.020363
2011-07-06 08:10:02 51°25.961 3°0.703 23.0849 0.015054 0.080544 -3.020363
2011-07-06 08:10:08 51°25.977 3°0.723 23.1303 0.015054 0.080544 -3.020363
2011-07-06 08:10:13 51°25.992 3°0.738 23.0654 0.015054 0.08055 -3.020363
2011-07-06 08:10:17 51°26.004 3°0.75 23.1171 0.015054 0.080549 -3.020363
2011-07-06 08:10:22 51°26.018 3°0.767 23.0973 0.015054 0.080549 -3.020363
2011-07-06 08:10:28 51°26.037 3°0.785 23.1116 0.015054 0.080558 -3.020363
2011-07-06 08:10:33 51°26.051 3°0.8 23.1102 0.015054 0.080558 -3.020363
2011-07-06 08:10:37 51°26.064 3°0.812 23.1184 0.015054 0.080556 -3.020363
2011-07-06 08:10:42 51°26.079 3°0.827 23.1093 0.015054 0.080553 -3.020363
2011-07-06 08:10:47 51°26.094 3°0.842 23.1231 0.015054 0.08055 -3.020363
2011-07-06 08:10:52 51°26.11 3°0.857 23.0984 0.015054 0.08055 -3.020363
2011-07-06 08:10:57 51°26.125 3°0.87 23.1141 0.015054 0.08055 -3.020363
2011-07-06 08:11:02 51°26.14 3°0.885 23.0951 0.015054 0.080552 -3.020363
2011-07-06 08:11:08 51°26.159 3°0.901 23.0948 0.015054 0.080551 -3.020363
2011-07-06 08:11:12 51°26.171 3°0.914 23.1122 0.015054 0.080552 -3.020363
2011-07-06 08:11:17 51°26.185 3°0.93 23.1038 0.015054 0.080551 -3.020363
2011-07-06 08:11:22 51°26.2 3°0.945 23.125 0.015054 0.080551 -3.020363
2011-07-06 08:11:27 51°26.215 3°0.962 23.0919 0.015054 0.080559 -3.020363
2011-07-06 08:11:32 51°26.23 3°0.978 23.1338 0.015054 0.080555 -3.020363
2011-07-06 08:11:37 51°26.244 3°0.995 23.1223 0.015054 0.080557 -3.020363
2011-07-06 08:11:42 51°26.259 3°1.011 23.1352 0.015054 0.080559 -3.020363
2011-07-06 08:11:47 51°26.274 3°1.026 23.1119 0.015054 0.080559 -3.020363
2011-07-06 08:11:53 51°26.293 3°1.044 23.1317 0.015054 0.080559 -3.020363
2011-07-06 08:11:57 51°26.305 3°1.057 23.1227 0.015054 0.080558 -3.020363
2011-07-06 08:12:02 51°26.32 3°1.072 23.1302 0.015054 0.080558 -3.020363
2011-07-06 08:12:07 51°26.335 3°1.088 23.1276 0.015054 0.080558 -3.020363
2011-07-06 08:12:13 51°26.354 3°1.106 23.1336 0.015054 0.080558 -3.020363
2011-07-06 08:12:17 51°26.365 3°1.119 23.0836 0.015054 0.080558 -3.020363
2011-07-06 08:12:22 51°26.381 3°1.132 23.1283 0.015054 0.080558 -3.020363
2011-07-06 08:12:27 51°26.395 3°1.151 23.103 0.015054 0.08056 -3.020363
2011-07-06 08:12:32 51°26.412 3°1.164 23.1627 0.015054 0.08056 -3.020363
2011-07-06 08:12:37 51°26.426 3°1.183 23.0912 0.015054 0.080573 -3.020363
2011-07-06 08:12:42 51°26.443 3°1.195 23.1583 0.015054 0.08057 -3.020363
2011-07-06 08:12:47 51°26.457 3°1.213 23.1065 0.015054 0.080582 -3.020363
2011-07-06 08:12:53 51°26.476 3°1.23 23.1284 0.015054 0.080582 -3.020363
2011-07-06 08:12:57 51°26.488 3°1.243 23.1175 0.015054 0.080577 -3.020363
2011-07-06 08:13:02 51°26.503 3°1.258 23.1485 0.015054 0.080576 -3.020363
2011-07-06 08:13:08 51°26.521 3°1.276 23.1526 0.015054 0.080568 -3.020363
2011-07-06 08:13:13 51°26.536 3°1.293 23.1248 0.015054 0.080564 -3.020363
2011-07-06 08:13:17 51°26.549 3°1.302 23.1574 0.015054 0.080566 -3.020363
2011-07-06 08:13:22 51°26.563 3°1.32 23.1205 0.015054 0.080566 -3.020363
2011-07-06 08:13:27 51°26.58 3°1.332 23.1242 0.015054 0.080568 -3.020363
2011-07-06 08:13:33 51°26.597 3°1.352 23.1306 0.015054 0.08056 -3.020363
2011-07-06 08:13:37 51°26.609 3°1.363 23.1492 0.015054 0.080556 -3.020363
2011-07-06 08:13:42 51°26.624 3°1.379 23.1416 0.015054 0.080556 -3.020363
2011-07-06 08:13:48 51°26.641 3°1.397 23.1486 0.015054 0.08056 -3.020363
2011-07-06 08:13:53 51°26.655 3°1.414 23.1563 0.015054 0.08056 -3.020363
2011-07-06 08:13:57 51°26.667 3°1.427 23.1667 0.015054 0.080559 -3.020363
2011-07-06 08:14:02 51°26.682 3°1.443 23.1488 0.015054 0.080558 -3.020363
2011-07-06 08:14:07 51°26.697 3°1.458 23.1586 0.015054 0.080561 -3.020363
2011-07-06 08:14:13 51°26.714 3°1.477 23.1323 0.015054 0.080563 -3.020363
2011-07-06 08:14:17 51°26.727 3°1.488 23.1536 0.015054 0.080563 -3.020363
2011-07-06 08:14:22 51°26.741 3°1.504 23.1308 0.015054 0.080563 -3.020363
2011-07-06 08:14:28 51°26.759 3°1.522 23.1596 0.015054 0.080564 -3.020363
2011-07-06 08:14:32 51°26.77 3°1.534 23.1227 0.015054 0.080564 -3.020363
2011-07-06 08:14:37 51°26.786 3°1.547 23.1393 0.015054 0.08056 -3.020363
2011-07-06 08:14:42 51°26.8 3°1.564 23.1361 0.015054 0.080565 -3.020363
2011-07-06 08:14:47 51°26.816 3°1.578 23.1691 0.015054 0.080567 -3.020363
2011-07-06 08:14:52 51°26.83 3°1.594 23.1313 0.015054 0.080567 -3.020363